Time,TemperatureF,DewpointF,PressureIn,WindDirection,WindDirectionDegrees,WindSpeedMPH,WindSpeedGustMPH,Humidity,HourlyPrecipIn,Conditions,Clouds,dailyrainin,SoftwareType,DateUTC
2013-06-02 00:01:00,66.7,65.2,29.87,WSW,238,0.0,2.0,95,0.00,,,0.46,Wunderground v.1.15,2013-06-02 04:01:00,
2013-06-02 00:02:00,66.7,65.2,29.87,WSW,238,0.0,2.0,95,0.00,,,0.46,Wunderground v.1.15,2013-06-02 04:02:00,
2013-06-02 00:05:00,66.6,65.1,29.87,WSW,238,0.0,2.0,95,0.00,,,0.00,Wunderground v.1.15,2013-06-02 04:05:00,
2013-06-02 00:06:00,66.6,65.1,29.86,WSW,238,2.0,2.0,95,0.00,,,0.00,Wunderground v.1.15,2013-06-02 04:06:00,
2013-06-02 00:07:00,66.6,65.1,29.87,WSW,237,0.0,2.0,95,0.00,,,0.00,Wunderground v.1.15,2013-06-02 04:07:00,
2013-06-02 00:10:00,66.5,65.0,29.87,WSW,238,0.0,1.0,95,0.00,,,0.00,Wunderground v.1.15,2013-06-02 04:10:00,
2013-06-02 00:11:00,66.5,65.0,29.87,WSW,237,0.0,1.0,95,0.00,,,0.00,Wunderground v.1.15,2013-06-02 04:11:00,
2013-06-02 00:13:00,66.5,65.0,29.87,WSW,237,5.0,5.0,95,0.00,,,0.00,Wunderground v.1.15,2013-06-02 04:13:00,
2013-06-02 00:14:00,66.5,65.0,29.87,WSW,237,0.0,5.0,95,0.00,,,0.00,Wunderground v.1.15,2013-06-02 04:14:00,
2013-06-02 00:18:00,66.5,65.0,29.88,SW,236,4.0,5.0,95,0.00,,,0.00,Wunderground v.1.15,2013-06-02 04:18:00,
2013-06-02 00:19:00,66.5,65.0,29.88,SW,236,2.0,5.0,95,0.00,,,0.00,Wunderground v.1.15,2013-06-02 04:19:00,
2013-06-02 00:21:00,66.5,65.0,29.88,SW,236,0.0,2.0,95,0.00,,,0.00,Wunderground v.1.15,2013-06-02 04:21:00,
2013-06-02 00:24:00,66.5,65.0,29.88,WSW,238,4.0,4.0,95,0.00,,,0.00,Wunderground v.1.15,2013-06-02 04:24:00,
2013-06-02 00:26:00,66.5,65.0,29.88,WSW,238,0.0,4.0,95,0.00,,,0.00,Wunderground v.1.15,2013-06-02 04:26:00,
2013-06-02 00:28:00,66.6,65.1,29.88,WSW,238,2.0,4.0,95,0.00,,,0.00,Wunderground v.1.15,2013-06-02 04:28:00,
2013-06-02 00:29:00,66.6,65.1,29.88,WSW,237,2.0,4.0,95,0.00,,,0.00,Wunderground v.1.15,2013-06-02 04:29:00,
2013-06-02 00:31:00,66.6,65.1,29.88,WSW,237,3.0,3.0,95,0.00,,,0.00,Wunderground v.1.15,2013-06-02 04:31:00,
2013-06-02 00:32:00,66.6,65.1,29.88,WSW,238,0.0,3.0,95,0.00,,,0.00,Wunderground v.1.15,2013-06-02 04:32:00,
2013-06-02 00:35:00,66.6,65.1,29.88,WSW,242,2.0,3.0,95,0.00,,,0.00,Wunderground v.1.15,2013-06-02 04:35:00,
2013-06-02 00:36:00,66.6,65.1,29.88,WSW,242,2.0,3.0,95,0.00,,,0.00,Wunderground v.1.15,2013-06-02 04:36:00,
2013-06-02 00:37:00,66.6,65.1,29.88,WSW,242,0.0,3.0,95,0.00,,,0.00,Wunderground v.1.15,2013-06-02 04:37:00,
2013-06-02 00:39:00,66.6,65.1,29.87,WSW,243,0.0,3.0,95,0.00,,,0.00,Wunderground v.1.15,2013-06-02 04:39:00,
2013-06-02 00:41:00,66.6,65.1,29.87,WSW,241,0.0,2.0,95,0.00,,,0.00,Wunderground v.1.15,2013-06-02 04:41:00,
2013-06-02 00:43:00,66.6,65.1,29.87,WSW,241,3.0,3.0,95,0.00,,,0.00,Wunderground v.1.15,2013-06-02 04:43:00,
2013-06-02 00:44:00,66.6,65.1,29.87,West,269,6.0,6.0,95,0.00,,,0.00,Wunderground v.1.15,2013-06-02 04:44:00,
2013-06-02 00:48:00,66.7,65.2,29.87,WSW,240,4.0,10.0,95,0.00,,,0.00,Wunderground v.1.15,2013-06-02 04:48:00,
2013-06-02 00:49:00,66.6,65.1,29.88,WSW,240,0.0,10.0,95,0.00,,,0.00,Wunderground v.1.15,2013-06-02 04:49:00,
2013-06-02 00:50:00,66.6,65.1,29.88,WSW,238,2.0,5.0,95,0.00,,,0.00,Wunderground v.1.15,2013-06-02 04:50:00,
2013-06-02 00:54:00,66.7,65.2,29.88,West,260,5.0,5.0,95,0.00,,,0.00,Wunderground v.1.15,2013-06-02 04:54:00,
2013-06-02 00:55:00,66.7,65.2,29.88,WSW,256,6.0,6.0,95,0.00,,,0.00,Wunderground v.1.15,2013-06-02 04:55:00,
2013-06-02 00:57:00,66.7,65.2,29.87,SW,219,3.0,6.0,95,0.00,,,0.00,Wunderground v.1.15,2013-06-02 04:57:00,
2013-06-02 00:59:00,66.7,65.2,29.87,SW,231,5.0,6.0,95,0.00,,,0.00,Wunderground v.1.15,2013-06-02 04:59:00,
2013-06-02 01:03:00,66.7,65.2,29.87,WSW,245,2.0,6.0,95,0.00,,,0.00,Wunderground v.1.15,2013-06-02 05:03:00,
2013-06-02 01:05:00,66.7,65.2,29.87,WSW,239,5.0,6.0,95,0.00,,,0.00,Wunderground v.1.15,2013-06-02 05:05:00,
2013-06-02 01:09:00,66.7,64.9,29.87,WSW,249,2.0,10.0,94,0.00,,,0.00,Wunderground v.1.15,2013-06-02 05:09:00,
2013-06-02 01:10:00,66.7,64.9,29.87,WSW,249,4.0,4.0,94,0.00,,,0.00,Wunderground v.1.15,2013-06-02 05:10:00,
2013-06-02 01:12:00,66.7,64.9,29.87,West,264,4.0,4.0,94,0.00,,,0.00,Wunderground v.1.15,2013-06-02 05:12:00,
2013-06-02 01:13:00,66.7,64.9,29.87,West,263,6.0,6.0,94,0.00,,,0.00,Wunderground v.1.15,2013-06-02 05:13:00,
2013-06-02 01:16:00,66.6,64.8,29.87,WSW,241,6.0,6.0,94,0.00,,,0.00,Wunderground v.1.15,2013-06-02 05:16:00,
2013-06-02 01:19:00,66.6,64.8,29.87,WSW,257,7.0,7.0,94,0.00,,,0.00,Wunderground v.1.15,2013-06-02 05:19:00,
2013-06-02 01:20:00,66.6,64.8,29.87,West,265,4.0,4.0,94,0.00,,,0.00,Wunderground v.1.15,2013-06-02 05:20:00,
2013-06-02 01:21:00,66.7,64.9,29.87,WSW,257,6.0,6.0,94,0.00,,,0.00,Wunderground v.1.15,2013-06-02 05:21:00,
2013-06-02 01:23:00,66.7,64.9,29.86,WSW,254,3.0,6.0,94,0.00,,,0.00,Wunderground v.1.15,2013-06-02 05:23:00,
2013-06-02 01:24:00,66.7,64.9,29.87,WSW,253,0.0,6.0,94,0.00,,,0.00,Wunderground v.1.15,2013-06-02 05:24:00,
2013-06-02 01:27:00,66.7,64.9,29.87,West,266,4.0,6.0,94,0.00,,,0.00,Wunderground v.1.15,2013-06-02 05:27:00,
2013-06-02 01:29:00,66.7,64.9,29.86,West,261,4.0,6.0,94,0.00,,,0.00,Wunderground v.1.15,2013-06-02 05:29:00,
2013-06-02 01:31:00,66.7,64.9,29.86,WSW,252,7.0,7.0,94,0.00,,,0.00,Wunderground v.1.15,2013-06-02 05:31:00,
2013-06-02 01:32:00,66.7,64.9,29.86,West,261,3.0,7.0,94,0.00,,,0.00,Wunderground v.1.15,2013-06-02 05:32:00,
2013-06-02 01:33:00,66.7,64.9,29.87,West,261,2.0,7.0,94,0.00,,,0.00,Wunderground v.1.15,2013-06-02 05:33:00,
2013-06-02 01:35:00,66.7,64.9,29.87,WSW,251,3.0,7.0,94,0.00,,,0.00,Wunderground v.1.15,2013-06-02 05:35:00,
2013-06-02 01:38:00,66.7,64.9,29.87,WSW,251,6.0,7.0,94,0.00,,,0.00,Wunderground v.1.15,2013-06-02 05:38:00,
2013-06-02 01:39:00,66.7,64.9,29.87,West,265,8.0,8.0,94,0.00,,,0.00,Wunderground v.1.15,2013-06-02 05:39:00,
2013-06-02 01:41:00,66.7,64.9,29.87,West,265,3.0,6.0,94,0.00,,,0.00,Wunderground v.1.15,2013-06-02 05:41:00,
2013-06-02 01:43:00,66.8,65.0,29.86,West,274,7.0,7.0,94,0.00,,,0.00,Wunderground v.1.15,2013-06-02 05:43:00,
2013-06-02 01:45:00,66.8,65.0,29.86,West,274,3.0,7.0,94,0.00,,,0.00,Wunderground v.1.15,2013-06-02 05:45:00,
2013-06-02 01:46:00,66.8,65.0,29.86,West,278,7.0,7.0,94,0.00,,,0.00,Wunderground v.1.15,2013-06-02 05:46:00,
2013-06-02 01:48:00,66.8,65.0,29.86,West,274,4.0,7.0,94,0.00,,,0.00,Wunderground v.1.15,2013-06-02 05:48:00,
2013-06-02 01:52:00,66.8,65.0,29.86,West,263,7.0,7.0,94,0.00,,,0.00,Wunderground v.1.15,2013-06-02 05:52:00,
2013-06-02 01:53:00,66.8,65.0,29.86,West,263,5.0,7.0,94,0.00,,,0.00,Wunderground v.1.15,2013-06-02 05:53:00,
2013-06-02 01:54:00,66.8,65.0,29.86,West,263,0.0,7.0,94,0.00,,,0.00,Wunderground v.1.15,2013-06-02 05:54:00,
2013-06-02 01:55:00,66.8,65.0,29.86,West,267,7.0,7.0,94,0.00,,,0.00,Wunderground v.1.15,2013-06-02 05:55:00,
2013-06-02 01:57:00,66.8,65.0,29.86,West,262,0.0,7.0,94,0.00,,,0.00,Wunderground v.1.15,2013-06-02 05:57:00,
2013-06-02 01:58:00,66.8,65.0,29.86,West,263,3.0,7.0,94,0.00,,,0.00,Wunderground v.1.15,2013-06-02 05:58:00,
2013-06-02 02:01:00,66.8,65.0,29.86,West,269,5.0,6.0,94,0.00,,,0.00,Wunderground v.1.15,2013-06-02 06:01:00,
2013-06-02 02:02:00,66.9,65.1,29.86,West,265,4.0,7.0,94,0.00,,,0.00,Wunderground v.1.15,2013-06-02 06:02:00,
2013-06-02 02:03:00,66.9,65.1,29.86,WSW,253,3.0,8.0,94,0.00,,,0.00,Wunderground v.1.15,2013-06-02 06:03:00,
2013-06-02 02:06:00,66.9,65.1,29.86,WSW,246,5.0,11.0,94,0.00,,,0.00,Wunderground v.1.15,2013-06-02 06:06:00,
2013-06-02 02:07:00,66.9,65.1,29.86,WSW,246,6.0,11.0,94,0.00,,,0.00,Wunderground v.1.15,2013-06-02 06:07:00,
2013-06-02 02:08:00,67.0,65.2,29.86,WNW,284,9.0,12.0,94,0.00,,,0.00,Wunderground v.1.15,2013-06-02 06:08:00,
2013-06-02 02:11:00,67.0,64.9,29.86,West,264,9.0,10.0,93,0.00,,,0.00,Wunderground v.1.15,2013-06-02 06:11:00,
2013-06-02 02:12:00,67.0,64.9,29.86,West,261,5.0,10.0,93,0.00,,,0.00,Wunderground v.1.15,2013-06-02 06:12:00,
2013-06-02 02:14:00,67.0,64.9,29.86,West,264,4.0,10.0,93,0.00,,,0.00,Wunderground v.1.15,2013-06-02 06:14:00,
2013-06-02 02:16:00,67.1,65.0,29.86,West,263,0.0,10.0,93,0.00,,,0.00,Wunderground v.1.15,2013-06-02 06:16:00,
2013-06-02 02:17:00,67.0,64.9,29.86,West,260,3.0,10.0,93,0.00,,,0.00,Wunderground v.1.15,2013-06-02 06:17:00,
2013-06-02 02:19:00,67.1,65.0,29.86,West,260,3.0,11.0,93,0.00,,,0.00,Wunderground v.1.15,2013-06-02 06:19:00,
2013-06-02 02:22:00,67.0,64.9,29.86,West,259,5.0,10.0,93,0.00,,,0.00,Wunderground v.1.15,2013-06-02 06:22:00,
2013-06-02 02:24:00,67.1,65.0,29.86,WSW,255,7.0,10.0,93,0.00,,,0.00,Wunderground v.1.15,2013-06-02 06:24:00,
2013-06-02 02:27:00,67.0,64.9,29.86,West,263,6.0,10.0,93,0.00,,,0.00,Wunderground v.1.15,2013-06-02 06:27:00,
2013-06-02 02:29:00,67.0,64.9,29.86,WSW,256,7.0,12.0,93,0.00,,,0.00,Wunderground v.1.15,2013-06-02 06:29:00,
2013-06-02 02:32:00,67.0,64.9,29.86,West,274,9.0,9.0,93,0.00,,,0.00,Wunderground v.1.15,2013-06-02 06:32:00,
2013-06-02 02:34:00,67.0,64.9,29.86,WSW,257,6.0,9.0,93,0.00,,,0.00,Wunderground v.1.15,2013-06-02 06:34:00,
2013-06-02 02:37:00,67.0,64.9,29.86,WSW,247,7.0,9.0,93,0.00,,,0.00,Wunderground v.1.15,2013-06-02 06:37:00,
2013-06-02 02:38:00,67.0,64.9,29.86,WSW,253,5.0,9.0,93,0.00,,,0.00,Wunderground v.1.15,2013-06-02 06:38:00,
2013-06-02 02:39:00,67.1,65.0,29.86,WSW,257,6.0,9.0,93,0.00,,,0.00,Wunderground v.1.15,2013-06-02 06:39:00,
2013-06-02 02:42:00,67.1,65.0,29.86,West,270,5.0,9.0,93,0.00,,,0.00,Wunderground v.1.15,2013-06-02 06:42:00,
2013-06-02 02:43:00,67.1,65.0,29.86,WSW,253,5.0,9.0,93,0.00,,,0.00,Wunderground v.1.15,2013-06-02 06:43:00,
2013-06-02 02:44:00,67.1,65.0,29.86,WSW,250,6.0,9.0,93,0.00,,,0.00,Wunderground v.1.15,2013-06-02 06:44:00,
2013-06-02 02:47:00,67.1,64.7,29.86,WSW,242,10.0,13.0,92,0.00,,,0.00,Wunderground v.1.15,2013-06-02 06:47:00,
2013-06-02 02:48:00,67.1,64.7,29.86,WSW,250,6.0,13.0,92,0.00,,,0.00,Wunderground v.1.15,2013-06-02 06:48:00,
2013-06-02 02:49:00,67.1,64.7,29.86,WSW,250,4.0,13.0,92,0.00,,,0.00,Wunderground v.1.15,2013-06-02 06:49:00,
2013-06-02 02:52:00,67.1,64.7,29.86,WSW,253,5.0,10.0,92,0.00,,,0.00,Wunderground v.1.15,2013-06-02 06:52:00,
2013-06-02 02:53:00,67.1,64.7,29.86,West,261,4.0,10.0,92,0.00,,,0.00,Wunderground v.1.15,2013-06-02 06:53:00,
2013-06-02 02:54:00,67.1,64.7,29.87,West,264,5.0,10.0,92,0.00,,,0.00,Wunderground v.1.15,2013-06-02 06:54:00,
2013-06-02 02:55:00,67.1,64.7,29.86,West,260,2.0,10.0,92,0.00,,,0.00,Wunderground v.1.15,2013-06-02 06:55:00,
2013-06-02 02:57:00,67.1,64.7,29.86,WSW,256,7.0,10.0,92,0.00,,,0.00,Wunderground v.1.15,2013-06-02 06:57:00,
2013-06-02 02:58:00,67.1,64.7,29.86,WSW,256,7.0,10.0,92,0.00,,,0.00,Wunderground v.1.15,2013-06-02 06:58:00,
2013-06-02 02:59:00,67.1,64.7,29.87,West,259,4.0,10.0,92,0.00,,,0.00,Wunderground v.1.15,2013-06-02 06:59:00,
2013-06-02 03:00:00,67.1,64.7,29.86,West,265,0.0,5.0,92,0.00,,,0.00,Wunderground v.1.15,2013-06-02 07:00:00,
2013-06-02 03:03:00,67.1,64.7,29.86,West,266,6.0,8.0,92,0.00,,,0.00,Wunderground v.1.15,2013-06-02 07:03:00,
2013-06-02 03:04:00,67.1,64.7,29.86,WSW,247,3.0,13.0,92,0.00,,,0.00,Wunderground v.1.15,2013-06-02 07:04:00,
2013-06-02 03:05:00,67.1,64.7,29.86,West,267,4.0,13.0,92,0.00,,,0.00,Wunderground v.1.15,2013-06-02 07:05:00,
2013-06-02 03:08:00,67.1,64.7,29.87,WSW,251,7.0,13.0,92,0.00,,,0.00,Wunderground v.1.15,2013-06-02 07:08:00,
2013-06-02 03:10:00,67.1,64.7,29.87,WSW,248,3.0,4.0,92,0.00,,,0.00,Wunderground v.1.15,2013-06-02 07:10:00,
2013-06-02 03:11:00,67.1,64.7,29.87,West,261,3.0,11.0,92,0.00,,,0.00,Wunderground v.1.15,2013-06-02 07:11:00,
2013-06-02 03:13:00,67.1,64.7,29.86,West,272,4.0,11.0,92,0.00,,,0.00,Wunderground v.1.15,2013-06-02 07:13:00,
2013-06-02 03:15:00,67.1,64.7,29.86,West,265,4.0,11.0,92,0.00,,,0.00,Wunderground v.1.15,2013-06-02 07:15:00,
2013-06-02 03:16:00,67.1,64.7,29.86,West,264,0.0,11.0,92,0.00,,,0.00,Wunderground v.1.15,2013-06-02 07:16:00,
2013-06-02 03:18:00,67.0,64.6,29.87,WSW,255,6.0,11.0,92,0.00,,,0.00,Wunderground v.1.15,2013-06-02 07:18:00,
2013-06-02 03:19:00,67.0,64.6,29.86,WSW,253,3.0,11.0,92,0.00,,,0.00,Wunderground v.1.15,2013-06-02 07:19:00,
2013-06-02 03:20:00,67.0,64.6,29.86,WSW,253,0.0,4.0,92,0.00,,,0.00,Wunderground v.1.15,2013-06-02 07:20:00,
2013-06-02 03:21:00,67.0,64.6,29.86,WSW,252,2.0,4.0,92,0.00,,,0.00,Wunderground v.1.15,2013-06-02 07:21:00,
2013-06-02 03:24:00,67.0,64.6,29.86,WSW,249,6.0,10.0,92,0.00,,,0.00,Wunderground v.1.15,2013-06-02 07:24:00,
2013-06-02 03:25:00,67.0,64.6,29.86,WSW,248,2.0,10.0,92,0.00,,,0.00,Wunderground v.1.15,2013-06-02 07:25:00,
2013-06-02 03:26:00,67.0,64.6,29.86,WSW,248,1.0,10.0,92,0.00,,,0.00,Wunderground v.1.15,2013-06-02 07:26:00,
2013-06-02 03:29:00,67.0,64.6,29.87,WSW,248,3.0,10.0,92,0.00,,,0.00,Wunderground v.1.15,2013-06-02 07:29:00,
2013-06-02 03:30:00,67.1,64.7,29.86,WSW,250,7.0,7.0,92,0.00,,,0.00,Wunderground v.1.15,2013-06-02 07:30:00,
2013-06-02 03:32:00,67.0,64.6,29.86,WSW,237,3.0,9.0,92,0.00,,,0.00,Wunderground v.1.15,2013-06-02 07:32:00,
2013-06-02 03:34:00,67.0,64.6,29.86,WSW,240,2.0,9.0,92,0.00,,,0.00,Wunderground v.1.15,2013-06-02 07:34:00,
2013-06-02 03:35:00,67.1,64.7,29.86,WSW,240,5.0,9.0,92,0.00,,,0.00,Wunderground v.1.15,2013-06-02 07:35:00,
2013-06-02 03:36:00,67.1,64.7,29.86,WSW,241,3.0,9.0,92,0.00,,,0.00,Wunderground v.1.15,2013-06-02 07:36:00,
2013-06-02 03:37:00,67.1,64.7,29.87,West,269,3.0,10.0,92,0.00,,,0.00,Wunderground v.1.15,2013-06-02 07:37:00,
2013-06-02 03:39:00,67.1,64.7,29.87,WSW,245,10.0,10.0,92,0.00,,,0.00,Wunderground v.1.15,2013-06-02 07:39:00,
2013-06-02 03:40:00,67.1,64.7,29.87,West,259,6.0,6.0,92,0.00,,,0.00,Wunderground v.1.15,2013-06-02 07:40:00,
2013-06-02 03:41:00,67.1,64.7,29.87,WSW,257,5.0,6.0,92,0.00,,,0.00,Wunderground v.1.15,2013-06-02 07:41:00,
2013-06-02 03:42:00,67.1,64.7,29.87,WSW,257,2.0,10.0,92,0.00,,,0.00,Wunderground v.1.15,2013-06-02 07:42:00,
2013-06-02 03:44:00,67.2,64.8,29.87,WSW,254,6.0,10.0,92,0.00,,,0.00,Wunderground v.1.15,2013-06-02 07:44:00,
2013-06-02 03:45:00,67.2,64.8,29.87,West,265,5.0,12.0,92,0.00,,,0.00,Wunderground v.1.15,2013-06-02 07:45:00,
2013-06-02 03:47:00,67.2,64.8,29.87,West,259,6.0,12.0,92,0.00,,,0.00,Wunderground v.1.15,2013-06-02 07:47:00,
2013-06-02 03:49:00,67.2,64.8,29.87,WSW,252,6.0,12.0,92,0.00,,,0.00,Wunderground v.1.15,2013-06-02 07:49:00,
2013-06-02 03:50:00,67.2,64.8,29.87,WSW,251,2.0,6.0,92,0.00,,,0.00,Wunderground v.1.15,2013-06-02 07:50:00,
2013-06-02 03:52:00,67.2,64.8,29.87,WSW,251,4.0,6.0,92,0.00,,,0.00,Wunderground v.1.15,2013-06-02 07:52:00,
2013-06-02 03:54:00,67.3,64.9,29.87,WSW,251,2.0,6.0,92,0.00,,,0.00,Wunderground v.1.15,2013-06-02 07:54:00,
2013-06-02 03:55:00,67.2,64.8,29.87,WSW,252,2.0,6.0,92,0.00,,,0.00,Wunderground v.1.15,2013-06-02 07:55:00,
2013-06-02 03:57:00,67.2,64.8,29.87,West,271,5.0,9.0,92,0.00,,,0.00,Wunderground v.1.15,2013-06-02 07:57:00,
2013-06-02 03:59:00,67.2,64.8,29.87,WSW,240,4.0,4.0,92,0.00,,,0.00,Wunderground v.1.15,2013-06-02 07:59:00,
2013-06-02 04:01:00,67.3,64.9,29.87,WSW,245,5.0,7.0,92,0.00,,,0.00,Wunderground v.1.15,2013-06-02 08:01:00,
2013-06-02 04:02:00,67.2,64.8,29.87,WSW,246,4.0,7.0,92,0.00,,,0.00,Wunderground v.1.15,2013-06-02 08:02:00,
2013-06-02 04:03:00,67.3,64.9,29.87,WSW,246,6.0,7.0,92,0.00,,,0.00,Wunderground v.1.15,2013-06-02 08:03:00,
2013-06-02 04:05:00,67.2,64.8,29.87,WSW,244,7.0,7.0,92,0.00,,,0.00,Wunderground v.1.15,2013-06-02 08:05:00,
2013-06-02 04:06:00,67.2,64.8,29.87,WSW,245,4.0,7.0,92,0.00,,,0.00,Wunderground v.1.15,2013-06-02 08:06:00,
2013-06-02 04:07:00,67.2,64.8,29.87,WSW,246,5.0,7.0,92,0.00,,,0.00,Wunderground v.1.15,2013-06-02 08:07:00,
2013-06-02 04:08:00,67.2,64.8,29.87,WSW,246,4.0,7.0,92,0.00,,,0.00,Wunderground v.1.15,2013-06-02 08:08:00,
2013-06-02 04:10:00,67.2,64.8,29.87,WSW,253,6.0,6.0,92,0.00,,,0.00,Wunderground v.1.15,2013-06-02 08:10:00,
2013-06-02 04:11:00,67.2,64.8,29.87,West,263,6.0,6.0,92,0.00,,,0.00,Wunderground v.1.15,2013-06-02 08:11:00,
2013-06-02 04:13:00,67.2,64.8,29.87,West,259,4.0,7.0,92,0.00,,,0.00,Wunderground v.1.15,2013-06-02 08:13:00,
2013-06-02 04:15:00,67.2,64.8,29.87,West,271,5.0,9.0,92,0.00,,,0.00,Wunderground v.1.15,2013-06-02 08:15:00,
2013-06-02 04:17:00,67.2,64.8,29.87,West,263,1.0,9.0,92,0.00,,,0.00,Wunderground v.1.15,2013-06-02 08:17:00,
2013-06-02 04:18:00,67.2,64.8,29.87,West,263,0.0,9.0,92,0.00,,,0.00,Wunderground v.1.15,2013-06-02 08:18:00,
2013-06-02 04:20:00,67.2,64.8,29.87,WSW,252,6.0,10.0,92,0.00,,,0.00,Wunderground v.1.15,2013-06-02 08:20:00,
2013-06-02 04:22:00,67.2,64.8,29.87,WSW,254,5.0,10.0,92,0.00,,,0.00,Wunderground v.1.15,2013-06-02 08:22:00,
2013-06-02 04:23:00,67.2,64.8,29.87,WSW,255,4.0,10.0,92,0.00,,,0.00,Wunderground v.1.15,2013-06-02 08:23:00,
2013-06-02 04:24:00,67.2,64.8,29.87,WSW,252,6.0,10.0,92,0.00,,,0.00,Wunderground v.1.15,2013-06-02 08:24:00,
2013-06-02 04:25:00,67.2,64.8,29.87,WSW,249,6.0,10.0,92,0.00,,,0.00,Wunderground v.1.15,2013-06-02 08:25:00,
2013-06-02 04:27:00,67.2,64.8,29.87,WSW,251,4.0,10.0,92,0.00,,,0.00,Wunderground v.1.15,2013-06-02 08:27:00,
2013-06-02 04:28:00,67.1,64.7,29.87,WSW,251,0.0,10.0,92,0.00,,,0.00,Wunderground v.1.15,2013-06-02 08:28:00,
2013-06-02 04:29:00,67.1,64.7,29.87,WSW,251,2.0,10.0,92,0.00,,,0.00,Wunderground v.1.15,2013-06-02 08:29:00,
2013-06-02 04:31:00,67.1,64.7,29.87,WSW,250,6.0,6.0,92,0.00,,,0.00,Wunderground v.1.15,2013-06-02 08:31:00,
2013-06-02 04:32:00,67.1,64.7,29.87,WSW,250,4.0,6.0,92,0.00,,,0.00,Wunderground v.1.15,2013-06-02 08:32:00,
2013-06-02 04:33:00,67.0,64.6,29.87,WSW,250,4.0,6.0,92,0.00,,,0.00,Wunderground v.1.15,2013-06-02 08:33:00,
2013-06-02 04:34:00,67.0,64.6,29.87,WSW,249,2.0,6.0,92,0.00,,,0.00,Wunderground v.1.15,2013-06-02 08:34:00,
2013-06-02 04:35:00,67.0,64.6,29.87,West,269,8.0,9.0,92,0.00,,,0.00,Wunderground v.1.15,2013-06-02 08:35:00,
2013-06-02 04:36:00,67.0,64.6,29.87,WSW,255,8.0,10.0,92,0.00,,,0.00,Wunderground v.1.15,2013-06-02 08:36:00,
2013-06-02 04:38:00,67.0,64.6,29.87,WSW,253,3.0,10.0,92,0.00,,,0.00,Wunderground v.1.15,2013-06-02 08:38:00,
2013-06-02 04:39:00,66.9,64.5,29.87,WSW,253,6.0,10.0,92,0.00,,,0.00,Wunderground v.1.15,2013-06-02 08:39:00,
2013-06-02 04:40:00,66.9,64.5,29.87,WSW,258,6.0,6.0,92,0.00,,,0.00,Wunderground v.1.15,2013-06-02 08:40:00,
2013-06-02 04:41:00,66.9,64.5,29.87,WSW,257,5.0,6.0,92,0.00,,,0.00,Wunderground v.1.15,2013-06-02 08:41:00,
2013-06-02 04:43:00,66.8,64.4,29.87,West,259,5.0,6.0,92,0.00,,,0.00,Wunderground v.1.15,2013-06-02 08:43:00,
2013-06-02 04:44:00,66.8,64.4,29.87,West,259,3.0,6.0,92,0.00,,,0.00,Wunderground v.1.15,2013-06-02 08:44:00,
2013-06-02 04:45:00,66.8,64.4,29.87,West,274,5.0,9.0,92,0.00,,,0.00,Wunderground v.1.15,2013-06-02 08:45:00,
2013-06-02 04:46:00,66.8,64.4,29.87,West,277,3.0,9.0,92,0.00,,,0.00,Wunderground v.1.15,2013-06-02 08:46:00,
2013-06-02 04:48:00,66.8,64.4,29.87,West,274,2.0,9.0,92,0.00,,,0.00,Wunderground v.1.15,2013-06-02 08:48:00,
2013-06-02 04:49:00,66.7,64.3,29.87,West,274,1.0,9.0,92,0.00,,,0.00,Wunderground v.1.15,2013-06-02 08:49:00,
2013-06-02 04:50:00,66.7,64.3,29.87,West,267,5.0,6.0,92,0.00,,,0.00,Wunderground v.1.15,2013-06-02 08:50:00,
2013-06-02 04:51:00,66.7,64.3,29.87,West,267,3.0,6.0,92,0.00,,,0.00,Wunderground v.1.15,2013-06-02 08:51:00,
2013-06-02 04:53:00,66.7,64.3,29.87,West,267,0.0,6.0,92,0.00,,,0.00,Wunderground v.1.15,2013-06-02 08:53:00,
2013-06-02 04:54:00,66.7,64.3,29.87,WSW,249,5.0,10.0,92,0.00,,,0.00,Wunderground v.1.15,2013-06-02 08:54:00,
2013-06-02 04:55:00,66.6,64.2,29.87,WSW,255,3.0,10.0,92,0.00,,,0.00,Wunderground v.1.15,2013-06-02 08:55:00,
2013-06-02 04:56:00,66.6,64.2,29.87,WSW,255,2.0,10.0,92,0.00,,,0.00,Wunderground v.1.15,2013-06-02 08:56:00,
2013-06-02 04:58:00,66.6,64.2,29.87,West,261,3.0,10.0,92,0.00,,,0.00,Wunderground v.1.15,2013-06-02 08:58:00,
2013-06-02 04:59:00,66.5,64.1,29.87,West,260,3.0,10.0,92,0.00,,,0.00,Wunderground v.1.15,2013-06-02 08:59:00,
2013-06-02 05:00:00,66.5,64.1,29.87,West,261,0.0,3.0,92,0.00,,,0.00,Wunderground v.1.15,2013-06-02 09:00:00,
2013-06-02 05:01:00,66.5,64.1,29.87,West,261,4.0,4.0,92,0.00,,,0.00,Wunderground v.1.15,2013-06-02 09:01:00,
2013-06-02 05:03:00,66.4,64.3,29.86,West,260,0.0,4.0,93,0.00,,,0.00,Wunderground v.1.15,2013-06-02 09:03:00,
2013-06-02 05:04:00,66.4,64.0,29.86,West,261,3.0,4.0,92,0.00,,,0.00,Wunderground v.1.15,2013-06-02 09:04:00,
2013-06-02 05:05:00,66.4,64.0,29.87,West,263,2.0,5.0,92,0.00,,,0.00,Wunderground v.1.15,2013-06-02 09:05:00,
2013-06-02 05:06:00,66.3,63.9,29.87,West,263,4.0,5.0,92,0.00,,,0.00,Wunderground v.1.15,2013-06-02 09:06:00,
2013-06-02 05:08:00,66.3,64.2,29.87,West,263,6.0,6.0,93,0.00,,,0.00,Wunderground v.1.15,2013-06-02 09:08:00,
2013-06-02 05:10:00,66.2,64.1,29.87,West,264,6.0,6.0,93,0.00,,,0.00,Wunderground v.1.15,2013-06-02 09:10:00,
2013-06-02 05:11:00,66.2,64.1,29.87,West,259,1.0,7.0,93,0.00,,,0.00,Wunderground v.1.15,2013-06-02 09:11:00,
2013-06-02 05:12:00,66.2,64.1,29.87,West,259,4.0,7.0,93,0.00,,,0.00,Wunderground v.1.15,2013-06-02 09:12:00,
2013-06-02 05:14:00,66.2,64.1,29.87,West,259,1.0,7.0,93,0.00,,,0.00,Wunderground v.1.15,2013-06-02 09:14:00,
2013-06-02 05:15:00,66.2,64.1,29.87,West,259,1.0,7.0,93,0.00,,,0.00,Wunderground v.1.15,2013-06-02 09:15:00,
2013-06-02 05:16:00,66.2,64.1,29.87,West,259,0.0,7.0,93,0.00,,,0.00,Wunderground v.1.15,2013-06-02 09:16:00,
2013-06-02 05:17:00,66.1,64.0,29.87,West,259,0.0,7.0,93,0.00,,,0.00,Wunderground v.1.15,2013-06-02 09:17:00,
2013-06-02 05:20:00,66.1,64.0,29.87,West,259,2.0,2.0,93,0.00,,,0.00,Wunderground v.1.15,2013-06-02 09:20:00,
2013-06-02 05:22:00,66.1,64.0,29.87,West,259,0.0,6.0,93,0.00,,,0.00,Wunderground v.1.15,2013-06-02 09:22:00,
2013-06-02 05:23:00,66.1,64.0,29.87,West,259,0.0,6.0,93,0.00,,,0.00,Wunderground v.1.15,2013-06-02 09:23:00,
2013-06-02 05:25:00,66.0,63.9,29.87,West,259,3.0,6.0,93,0.00,,,0.00,Wunderground v.1.15,2013-06-02 09:25:00,
2013-06-02 05:26:00,66.0,63.9,29.87,West,260,5.0,6.0,93,0.00,,,0.00,Wunderground v.1.15,2013-06-02 09:26:00,
2013-06-02 05:27:00,66.0,63.9,29.87,West,261,0.0,6.0,93,0.00,,,0.00,Wunderground v.1.15,2013-06-02 09:27:00,
2013-06-02 05:28:00,66.0,63.9,29.87,West,261,0.0,6.0,93,0.00,,,0.00,Wunderground v.1.15,2013-06-02 09:28:00,
2013-06-02 05:30:00,66.0,63.9,29.87,West,260,0.0,1.0,93,0.00,,,0.00,Wunderground v.1.15,2013-06-02 09:30:00,
2013-06-02 05:31:00,66.0,63.9,29.87,West,261,0.0,1.0,93,0.00,,,0.00,Wunderground v.1.15,2013-06-02 09:31:00,
2013-06-02 05:32:00,65.9,63.8,29.87,West,261,3.0,4.0,93,0.00,,,0.00,Wunderground v.1.15,2013-06-02 09:32:00,
2013-06-02 05:34:00,65.9,63.8,29.87,West,260,0.0,4.0,93,0.00,,,0.00,Wunderground v.1.15,2013-06-02 09:34:00,
2013-06-02 05:35:00,65.9,63.8,29.87,West,261,0.0,4.0,93,0.00,,,0.00,Wunderground v.1.15,2013-06-02 09:35:00,
2013-06-02 05:37:00,65.9,63.8,29.87,West,260,0.0,4.0,93,0.00,,,0.00,Wunderground v.1.15,2013-06-02 09:37:00,
2013-06-02 05:39:00,65.9,63.8,29.87,West,260,0.0,5.0,93,0.00,,,0.00,Wunderground v.1.15,2013-06-02 09:39:00,
2013-06-02 05:40:00,65.9,63.8,29.87,West,260,0.0,1.0,93,0.00,,,0.00,Wunderground v.1.15,2013-06-02 09:40:00,
2013-06-02 05:41:00,65.9,63.8,29.87,West,261,0.0,1.0,93,0.00,,,0.00,Wunderground v.1.15,2013-06-02 09:41:00,
2013-06-02 05:42:00,65.8,63.7,29.87,West,261,0.0,1.0,93,0.00,,,0.00,Wunderground v.1.15,2013-06-02 09:42:00,
2013-06-02 05:43:00,65.8,63.7,29.87,West,260,0.0,1.0,93,0.00,,,0.00,Wunderground v.1.15,2013-06-02 09:43:00,
2013-06-02 05:44:00,65.8,63.7,29.88,West,260,0.0,5.0,93,0.00,,,0.00,Wunderground v.1.15,2013-06-02 09:44:00,
2013-06-02 05:45:00,65.8,63.7,29.87,WSW,257,5.0,6.0,93,0.00,,,0.00,Wunderground v.1.15,2013-06-02 09:45:00,
2013-06-02 05:46:00,65.8,63.7,29.87,WSW,255,5.0,6.0,93,0.00,,,0.00,Wunderground v.1.15,2013-06-02 09:46:00,
2013-06-02 05:47:00,65.8,63.7,29.87,WSW,257,3.0,7.0,93,0.00,,,0.00,Wunderground v.1.15,2013-06-02 09:47:00,
2013-06-02 05:48:00,65.8,63.7,29.87,WSW,257,4.0,7.0,93,0.00,,,0.00,Wunderground v.1.15,2013-06-02 09:48:00,
2013-06-02 05:49:00,65.8,63.7,29.87,WSW,257,0.0,7.0,93,0.00,,,0.00,Wunderground v.1.15,2013-06-02 09:49:00,
2013-06-02 05:50:00,65.8,63.7,29.87,WSW,257,0.0,2.0,93,0.00,,,0.00,Wunderground v.1.15,2013-06-02 09:50:00,
2013-06-02 05:51:00,65.8,63.7,29.87,WSW,257,2.0,5.0,93,0.00,,,0.00,Wunderground v.1.15,2013-06-02 09:51:00,
2013-06-02 05:52:00,65.8,63.7,29.87,WSW,257,0.0,5.0,93,0.00,,,0.00,Wunderground v.1.15,2013-06-02 09:52:00,
2013-06-02 05:53:00,65.8,63.7,29.87,WSW,257,1.0,5.0,93,0.00,,,0.00,Wunderground v.1.15,2013-06-02 09:53:00,
2013-06-02 05:55:00,65.8,63.7,29.87,WSW,257,0.0,5.0,93,0.00,,,0.00,Wunderground v.1.15,2013-06-02 09:55:00,
2013-06-02 05:56:00,65.8,63.7,29.88,WSW,257,0.0,5.0,93,0.00,,,0.00,Wunderground v.1.15,2013-06-02 09:56:00,
2013-06-02 05:58:00,65.9,63.8,29.88,WSW,257,0.0,5.0,93,0.00,,,0.00,Wunderground v.1.15,2013-06-02 09:58:00,
2013-06-02 06:00:00,65.9,63.8,29.88,WSW,249,0.0,1.0,93,0.00,,,0.00,Wunderground v.1.15,2013-06-02 10:00:00,
2013-06-02 06:01:00,65.9,63.8,29.88,WSW,249,5.0,5.0,93,0.00,,,0.00,Wunderground v.1.15,2013-06-02 10:01:00,
2013-06-02 06:03:00,65.9,63.8,29.88,WSW,249,0.0,6.0,93,0.00,,,0.00,Wunderground v.1.15,2013-06-02 10:03:00,
2013-06-02 06:04:00,65.9,63.8,29.88,WSW,249,0.0,6.0,93,0.00,,,0.00,Wunderground v.1.15,2013-06-02 10:04:00,
2013-06-02 06:05:00,65.9,63.8,29.88,WSW,251,1.0,6.0,93,0.00,,,0.00,Wunderground v.1.15,2013-06-02 10:05:00,
2013-06-02 06:06:00,65.9,63.8,29.88,WSW,250,0.0,6.0,93,0.00,,,0.00,Wunderground v.1.15,2013-06-02 10:06:00,
2013-06-02 06:07:00,65.9,63.8,29.88,WSW,250,0.0,6.0,93,0.00,,,0.00,Wunderground v.1.15,2013-06-02 10:07:00,
2013-06-02 06:09:00,65.9,63.8,29.88,WSW,250,3.0,6.0,93,0.00,,,0.00,Wunderground v.1.15,2013-06-02 10:09:00,
2013-06-02 06:10:00,65.9,63.8,29.88,WSW,251,3.0,5.0,93,0.00,,,0.00,Wunderground v.1.15,2013-06-02 10:10:00,
2013-06-02 06:11:00,65.9,63.8,29.88,WSW,251,4.0,6.0,93,0.00,,,0.00,Wunderground v.1.15,2013-06-02 10:11:00,
2013-06-02 06:12:00,65.9,63.8,29.88,WSW,251,0.0,6.0,93,0.00,,,0.00,Wunderground v.1.15,2013-06-02 10:12:00,
2013-06-02 06:14:00,65.9,63.8,29.88,WSW,251,2.0,6.0,93,0.00,,,0.00,Wunderground v.1.15,2013-06-02 10:14:00,
2013-06-02 06:15:00,65.9,63.8,29.88,WSW,251,0.0,6.0,93,0.00,,,0.00,Wunderground v.1.15,2013-06-02 10:15:00,
2013-06-02 06:17:00,65.9,63.8,29.88,WSW,251,0.0,6.0,93,0.00,,,0.00,Wunderground v.1.15,2013-06-02 10:17:00,
2013-06-02 06:19:00,65.9,63.8,29.88,WSW,255,0.0,6.0,93,0.00,,,0.00,Wunderground v.1.15,2013-06-02 10:19:00,
2013-06-02 06:20:00,65.9,63.8,29.88,WSW,254,3.0,9.0,93,0.00,,,0.00,Wunderground v.1.15,2013-06-02 10:20:00,
2013-06-02 06:22:00,65.9,63.8,29.88,WSW,253,4.0,9.0,93,0.00,,,0.00,Wunderground v.1.15,2013-06-02 10:22:00,
2013-06-02 06:23:00,65.9,63.8,29.88,West,260,3.0,9.0,93,0.00,,,0.00,Wunderground v.1.15,2013-06-02 10:23:00,
2013-06-02 06:24:00,65.9,63.8,29.88,West,260,0.0,9.0,93,0.00,,,0.00,Wunderground v.1.15,2013-06-02 10:24:00,
2013-06-02 06:25:00,65.9,63.8,29.88,West,260,0.0,9.0,93,0.00,,,0.00,Wunderground v.1.15,2013-06-02 10:25:00,
2013-06-02 06:27:00,65.9,63.8,29.88,West,260,0.0,9.0,93,0.00,,,0.00,Wunderground v.1.15,2013-06-02 10:27:00,
2013-06-02 06:28:00,65.9,63.8,29.88,West,260,0.0,9.0,93,0.00,,,0.00,Wunderground v.1.15,2013-06-02 10:28:00,
2013-06-02 06:29:00,65.9,63.8,29.88,West,260,3.0,3.0,93,0.00,,,0.00,Wunderground v.1.15,2013-06-02 10:29:00,
2013-06-02 06:30:00,65.9,63.8,29.88,West,260,3.0,3.0,93,0.00,,,0.00,Wunderground v.1.15,2013-06-02 10:30:00,
2013-06-02 06:31:00,65.9,63.8,29.88,West,260,1.0,5.0,93,0.00,,,0.00,Wunderground v.1.15,2013-06-02 10:31:00,
2013-06-02 06:32:00,65.8,63.7,29.88,WSW,258,5.0,6.0,93,0.00,,,0.00,Wunderground v.1.15,2013-06-02 10:32:00,
2013-06-02 06:33:00,65.8,63.7,29.88,West,259,0.0,6.0,93,0.00,,,0.00,Wunderground v.1.15,2013-06-02 10:33:00,
2013-06-02 06:35:00,65.8,63.7,29.88,West,259,2.0,6.0,93,0.00,,,0.00,Wunderground v.1.15,2013-06-02 10:35:00,
2013-06-02 06:36:00,65.8,63.7,29.88,WSW,257,0.0,6.0,93,0.00,,,0.00,Wunderground v.1.15,2013-06-02 10:36:00,
2013-06-02 06:37:00,65.8,63.7,29.88,WSW,258,0.0,6.0,93,0.00,,,0.00,Wunderground v.1.15,2013-06-02 10:37:00,
2013-06-02 06:38:00,65.8,63.7,29.88,WSW,257,1.0,6.0,93,0.00,,,0.00,Wunderground v.1.15,2013-06-02 10:38:00,
2013-06-02 06:40:00,65.8,63.7,29.89,WSW,258,0.0,2.0,93,0.00,,,0.00,Wunderground v.1.15,2013-06-02 10:40:00,
2013-06-02 06:41:00,65.8,63.7,29.89,West,259,0.0,2.0,93,0.00,,,0.00,Wunderground v.1.15,2013-06-02 10:41:00,
2013-06-02 06:43:00,65.8,63.7,29.89,WSW,258,0.0,2.0,93,0.00,,,0.00,Wunderground v.1.15,2013-06-02 10:43:00,
2013-06-02 06:44:00,65.8,63.7,29.88,WSW,258,3.0,3.0,93,0.00,,,0.00,Wunderground v.1.15,2013-06-02 10:44:00,
2013-06-02 06:45:00,65.8,63.7,29.89,WSW,258,4.0,4.0,93,0.00,,,0.00,Wunderground v.1.15,2013-06-02 10:45:00,
2013-06-02 06:46:00,65.8,63.7,29.89,WSW,258,3.0,4.0,93,0.00,,,0.00,Wunderground v.1.15,2013-06-02 10:46:00,
2013-06-02 06:48:00,65.8,63.7,29.88,WSW,258,0.0,4.0,93,0.00,,,0.00,Wunderground v.1.15,2013-06-02 10:48:00,
2013-06-02 06:49:00,65.8,63.7,29.89,WSW,258,0.0,4.0,93,0.00,,,0.00,Wunderground v.1.15,2013-06-02 10:49:00,
2013-06-02 06:50:00,65.8,63.7,29.89,West,264,3.0,3.0,93,0.00,,,0.00,Wunderground v.1.15,2013-06-02 10:50:00,
2013-06-02 06:51:00,65.8,63.7,29.89,West,264,2.0,3.0,93,0.00,,,0.00,Wunderground v.1.15,2013-06-02 10:51:00,
2013-06-02 06:52:00,65.8,63.7,29.89,West,264,0.0,3.0,93,0.00,,,0.00,Wunderground v.1.15,2013-06-02 10:52:00,
2013-06-02 06:53:00,65.8,63.7,29.89,West,264,0.0,3.0,93,0.00,,,0.00,Wunderground v.1.15,2013-06-02 10:53:00,
2013-06-02 06:55:00,65.8,64.0,29.89,West,264,0.0,3.0,94,0.00,,,0.00,Wunderground v.1.15,2013-06-02 10:55:00,
2013-06-02 06:56:00,65.8,64.0,29.89,West,264,0.0,3.0,94,0.00,,,0.00,Wunderground v.1.15,2013-06-02 10:56:00,
2013-06-02 06:57:00,65.8,64.0,29.89,West,264,0.0,3.0,94,0.00,,,0.00,Wunderground v.1.15,2013-06-02 10:57:00,
2013-06-02 06:58:00,65.8,64.0,29.89,West,264,0.0,3.0,94,0.00,,,0.00,Wunderground v.1.15,2013-06-02 10:58:00,
2013-06-02 07:00:00,65.8,64.0,29.89,West,264,3.0,3.0,94,0.00,,,0.00,Wunderground v.1.15,2013-06-02 11:00:00,
2013-06-02 07:01:00,65.8,64.0,29.89,West,264,2.0,4.0,94,0.00,,,0.00,Wunderground v.1.15,2013-06-02 11:01:00,
2013-06-02 07:02:00,65.8,64.0,29.89,West,264,0.0,4.0,94,0.00,,,0.00,Wunderground v.1.15,2013-06-02 11:02:00,
2013-06-02 07:03:00,65.8,64.0,29.89,West,264,0.0,4.0,94,0.00,,,0.00,Wunderground v.1.15,2013-06-02 11:03:00,
2013-06-02 07:06:00,65.9,64.1,29.89,West,264,0.0,4.0,94,0.00,,,0.00,Wunderground v.1.15,2013-06-02 11:06:00,
2013-06-02 07:07:00,65.9,64.1,29.89,West,264,0.0,4.0,94,0.00,,,0.00,Wunderground v.1.15,2013-06-02 11:07:00,
2013-06-02 07:08:00,65.9,64.1,29.89,West,264,0.0,4.0,94,0.00,,,0.00,Wunderground v.1.15,2013-06-02 11:08:00,
2013-06-02 07:11:00,65.9,64.1,29.89,West,264,0.0,1.0,94,0.00,,,0.00,Wunderground v.1.15,2013-06-02 11:11:00,
2013-06-02 07:12:00,65.8,64.0,29.89,West,264,0.0,1.0,94,0.00,,,0.00,Wunderground v.1.15,2013-06-02 11:12:00,
2013-06-02 07:13:00,65.9,64.1,29.89,West,264,0.0,1.0,94,0.00,,,0.00,Wunderground v.1.15,2013-06-02 11:13:00,
2013-06-02 07:16:00,65.9,64.1,29.89,West,264,0.0,1.0,94,0.00,,,0.00,Wunderground v.1.15,2013-06-02 11:16:00,
2013-06-02 07:17:00,65.9,64.1,29.89,West,264,0.0,1.0,94,0.00,,,0.00,Wunderground v.1.15,2013-06-02 11:17:00,
2013-06-02 07:19:00,65.9,64.1,29.89,West,264,0.0,2.0,94,0.00,,,0.00,Wunderground v.1.15,2013-06-02 11:19:00,
2013-06-02 07:21:00,65.9,64.1,29.89,West,264,1.0,4.0,94,0.00,,,0.00,Wunderground v.1.15,2013-06-02 11:21:00,
2013-06-02 07:22:00,65.9,64.1,29.89,West,264,0.0,4.0,94,0.00,,,0.00,Wunderground v.1.15,2013-06-02 11:22:00,
2013-06-02 07:23:00,65.9,63.8,29.89,West,264,0.0,4.0,93,0.00,,,0.00,Wunderground v.1.15,2013-06-02 11:23:00,
2013-06-02 07:24:00,65.9,64.1,29.89,West,264,0.0,4.0,94,0.00,,,0.00,Wunderground v.1.15,2013-06-02 11:24:00,
2013-06-02 07:27:00,65.9,64.1,29.89,West,264,3.0,4.0,94,0.00,,,0.00,Wunderground v.1.15,2013-06-02 11:27:00,
2013-06-02 07:29:00,65.9,63.8,29.89,West,264,4.0,6.0,93,0.00,,,0.00,Wunderground v.1.15,2013-06-02 11:29:00,
2013-06-02 07:33:00,65.9,63.8,29.89,West,266,0.0,4.0,93,0.00,,,0.00,Wunderground v.1.15,2013-06-02 11:33:00,
2013-06-02 07:35:00,65.9,63.8,29.89,West,265,0.0,4.0,93,0.00,,,0.00,Wunderground v.1.15,2013-06-02 11:35:00,
2013-06-02 07:40:00,66.0,63.9,29.89,West,265,1.0,1.0,93,0.00,,,0.00,Wunderground v.1.15,2013-06-02 11:40:00,
2013-06-02 07:41:00,66.0,63.9,29.89,West,262,3.0,3.0,93,0.00,,,0.00,Wunderground v.1.15,2013-06-02 11:41:00,
2013-06-02 07:42:00,66.0,63.9,29.89,West,262,0.0,3.0,93,0.00,,,0.00,Wunderground v.1.15,2013-06-02 11:42:00,
2013-06-02 07:44:00,66.0,63.9,29.89,West,261,0.0,3.0,93,0.00,,,0.00,Wunderground v.1.15,2013-06-02 11:44:00,
2013-06-02 07:46:00,66.0,63.9,29.89,West,262,0.0,3.0,93,0.00,,,0.00,Wunderground v.1.15,2013-06-02 11:46:00,
2013-06-02 07:47:00,66.0,63.9,29.89,West,262,3.0,3.0,93,0.00,,,0.00,Wunderground v.1.15,2013-06-02 11:47:00,
2013-06-02 07:48:00,66.0,63.9,29.88,West,261,1.0,3.0,93,0.00,,,0.00,Wunderground v.1.15,2013-06-02 11:48:00,
2013-06-02 07:49:00,66.0,63.9,29.89,West,261,0.0,1.0,93,0.00,,,0.00,Wunderground v.1.15,2013-06-02 11:49:00,
2013-06-02 07:53:00,66.1,64.0,29.88,West,261,0.0,2.0,93,0.00,,,0.00,Wunderground v.1.15,2013-06-02 11:53:00,
2013-06-02 07:54:00,66.1,64.0,29.88,West,261,0.0,2.0,93,0.00,,,0.00,Wunderground v.1.15,2013-06-02 11:54:00,
2013-06-02 07:55:00,66.1,64.0,29.88,West,261,0.0,2.0,93,0.00,,,0.00,Wunderground v.1.15,2013-06-02 11:55:00,
2013-06-02 07:59:00,66.2,64.1,29.88,West,261,0.0,2.0,93,0.00,,,0.00,Wunderground v.1.15,2013-06-02 11:59:00,
2013-06-02 08:00:00,66.2,64.1,29.88,West,261,1.0,1.0,93,0.00,,,0.00,Wunderground v.1.15,2013-06-02 12:00:00,
2013-06-02 08:03:00,66.3,64.2,29.88,West,261,0.0,3.0,93,0.00,,,0.00,Wunderground v.1.15,2013-06-02 12:03:00,
2013-06-02 08:05:00,66.4,64.3,29.88,West,261,0.0,3.0,93,0.00,,,0.00,Wunderground v.1.15,2013-06-02 12:05:00,
2013-06-02 08:08:00,66.5,64.4,29.88,NW,315,3.0,6.0,93,0.00,,,0.00,Wunderground v.1.15,2013-06-02 12:08:00,
2013-06-02 08:10:00,66.5,64.1,29.88,NW,315,0.0,1.0,92,0.00,,,0.00,Wunderground v.1.15,2013-06-02 12:10:00,
2013-06-02 08:13:00,66.6,64.2,29.88,NW,315,0.0,1.0,92,0.00,,,0.00,Wunderground v.1.15,2013-06-02 12:13:00,
2013-06-02 08:15:00,66.7,64.6,29.88,NW,315,0.0,1.0,93,0.00,,,0.00,Wunderground v.1.15,2013-06-02 12:15:00,
2013-06-02 08:16:00,66.7,64.6,29.88,NW,315,0.0,1.0,93,0.00,,,0.00,Wunderground v.1.15,2013-06-02 12:16:00,
2013-06-02 08:19:00,66.9,64.5,29.88,NW,315,0.0,1.0,92,0.00,,,0.00,Wunderground v.1.15,2013-06-02 12:19:00,
2013-06-02 08:20:00,66.9,64.5,29.88,NW,315,0.0,1.0,92,0.00,,,0.00,Wunderground v.1.15,2013-06-02 12:20:00,
2013-06-02 08:21:00,66.9,64.5,29.88,NW,313,1.0,4.0,92,0.00,,,0.00,Wunderground v.1.15,2013-06-02 12:21:00,
2013-06-02 08:24:00,66.9,64.2,29.89,WNW,303,0.0,4.0,91,0.00,,,0.00,Wunderground v.1.15,2013-06-02 12:24:00,
2013-06-02 08:25:00,66.9,64.2,29.88,WNW,303,0.0,4.0,91,0.00,,,0.00,Wunderground v.1.15,2013-06-02 12:25:00,
2013-06-02 08:26:00,66.9,64.2,29.89,WNW,303,0.0,4.0,91,0.00,,,0.00,Wunderground v.1.15,2013-06-02 12:26:00,
2013-06-02 08:29:00,66.9,64.2,29.89,WNW,303,0.0,4.0,91,0.00,,,0.00,Wunderground v.1.15,2013-06-02 12:29:00,
2013-06-02 08:30:00,66.9,64.2,29.89,WNW,303,2.0,2.0,91,0.00,,,0.00,Wunderground v.1.15,2013-06-02 12:30:00,
2013-06-02 08:31:00,67.0,64.0,29.89,WNW,303,0.0,2.0,90,0.00,,,0.00,Wunderground v.1.15,2013-06-02 12:31:00,
2013-06-02 08:32:00,67.0,64.0,29.89,WNW,303,1.0,3.0,90,0.00,,,0.00,Wunderground v.1.15,2013-06-02 12:32:00,
2013-06-02 08:35:00,67.0,64.0,29.89,WNW,303,1.0,3.0,90,0.00,,,0.00,Wunderground v.1.15,2013-06-02 12:35:00,
2013-06-02 08:36:00,67.0,64.0,29.89,WNW,303,0.0,3.0,90,0.00,,,0.00,Wunderground v.1.15,2013-06-02 12:36:00,
2013-06-02 08:37:00,66.9,63.9,29.89,WNW,303,0.0,3.0,90,0.00,,,0.00,Wunderground v.1.15,2013-06-02 12:37:00,
2013-06-02 08:40:00,66.9,63.9,29.89,WNW,302,0.0,1.0,90,0.00,,,0.00,Wunderground v.1.15,2013-06-02 12:40:00,
2013-06-02 08:41:00,67.0,64.0,29.90,WNW,303,0.0,1.0,90,0.00,,,0.00,Wunderground v.1.15,2013-06-02 12:41:00,
2013-06-02 08:42:00,67.0,64.0,29.90,WNW,302,0.0,1.0,90,0.00,,,0.00,Wunderground v.1.15,2013-06-02 12:42:00,
2013-06-02 08:45:00,67.0,64.0,29.90,WNW,303,0.0,1.0,90,0.00,,,0.00,Wunderground v.1.15,2013-06-02 12:45:00,
2013-06-02 08:46:00,67.1,64.1,29.90,WNW,303,0.0,1.0,90,0.00,,,0.00,Wunderground v.1.15,2013-06-02 12:46:00,
2013-06-02 08:47:00,67.1,64.1,29.90,WNW,303,0.0,1.0,90,0.00,,,0.00,Wunderground v.1.15,2013-06-02 12:47:00,
2013-06-02 08:48:00,67.1,64.1,29.90,WNW,303,1.0,2.0,90,0.00,,,0.00,Wunderground v.1.15,2013-06-02 12:48:00,
2013-06-02 08:50:00,67.1,63.7,29.90,WNW,299,2.0,3.0,89,0.00,,,0.00,Wunderground v.1.15,2013-06-02 12:50:00,
2013-06-02 08:52:00,67.2,63.8,29.90,WNW,298,4.0,4.0,89,0.00,,,0.00,Wunderground v.1.15,2013-06-02 12:52:00,
2013-06-02 08:53:00,67.2,63.8,29.90,WNW,288,3.0,5.0,89,0.00,,,0.00,Wunderground v.1.15,2013-06-02 12:53:00,
2013-06-02 08:55:00,67.2,63.8,29.90,WNW,288,0.0,5.0,89,0.00,,,0.00,Wunderground v.1.15,2013-06-02 12:55:00,
2013-06-02 08:57:00,67.2,63.8,29.90,West,281,4.0,5.0,89,0.00,,,0.00,Wunderground v.1.15,2013-06-02 12:57:00,
2013-06-02 08:58:00,67.3,63.9,29.90,West,280,2.0,5.0,89,0.00,,,0.00,Wunderground v.1.15,2013-06-02 12:58:00,
2013-06-02 09:00:00,67.3,63.9,29.90,WNW,282,2.0,3.0,89,0.00,,,0.00,Wunderground v.1.15,2013-06-02 13:00:00,
2013-06-02 09:02:00,67.4,63.7,29.90,West,278,2.0,5.0,88,0.00,,,0.00,Wunderground v.1.15,2013-06-02 13:02:00,
2013-06-02 09:03:00,67.4,63.7,29.90,West,278,3.0,5.0,88,0.00,,,0.00,Wunderground v.1.15,2013-06-02 13:03:00,
2013-06-02 09:05:00,67.4,63.7,29.90,West,276,3.0,5.0,88,0.00,,,0.00,Wunderground v.1.15,2013-06-02 13:05:00,
2013-06-02 09:07:00,67.5,63.8,29.90,West,276,3.0,5.0,88,0.00,,,0.00,Wunderground v.1.15,2013-06-02 13:07:00,
2013-06-02 09:08:00,67.4,63.7,29.90,West,276,4.0,5.0,88,0.00,,,0.00,Wunderground v.1.15,2013-06-02 13:08:00,
2013-06-02 09:11:00,67.5,63.8,29.90,West,274,3.0,6.0,88,0.00,,,0.00,Wunderground v.1.15,2013-06-02 13:11:00,
2013-06-02 09:12:00,67.4,63.4,29.90,West,270,0.0,6.0,87,0.00,,,0.00,Wunderground v.1.15,2013-06-02 13:12:00,
2013-06-02 09:13:00,67.5,63.8,29.90,West,270,0.0,6.0,88,0.00,,,0.00,Wunderground v.1.15,2013-06-02 13:13:00,
2013-06-02 09:14:00,67.5,63.8,29.90,West,270,0.0,6.0,88,0.00,,,0.00,Wunderground v.1.15,2013-06-02 13:14:00,
2013-06-02 09:16:00,67.6,63.9,29.90,West,259,3.0,7.0,88,0.00,,,0.00,Wunderground v.1.15,2013-06-02 13:16:00,
2013-06-02 09:18:00,67.7,63.7,29.90,WSW,257,3.0,7.0,87,0.00,,,0.00,Wunderground v.1.15,2013-06-02 13:18:00,
2013-06-02 09:19:00,67.7,63.7,29.90,West,267,3.0,7.0,87,0.00,,,0.00,Wunderground v.1.15,2013-06-02 13:19:00,
2013-06-02 09:20:00,67.8,63.8,29.90,West,267,0.0,3.0,87,0.00,,,0.00,Wunderground v.1.15,2013-06-02 13:20:00,
2013-06-02 09:21:00,67.9,63.9,29.90,West,267,2.0,4.0,87,0.00,,,0.00,Wunderground v.1.15,2013-06-02 13:21:00,
2013-06-02 09:23:00,67.9,64.2,29.90,West,259,3.0,7.0,88,0.00,,,0.00,Wunderground v.1.15,2013-06-02 13:23:00,
2013-06-02 09:24:00,68.0,64.0,29.90,WSW,257,4.0,7.0,87,0.00,,,0.00,Wunderground v.1.15,2013-06-02 13:24:00,
2013-06-02 09:25:00,68.0,63.7,29.90,WSW,255,3.0,7.0,86,0.00,,,0.00,Wunderground v.1.15,2013-06-02 13:25:00,
2013-06-02 09:26:00,68.1,63.8,29.90,WSW,251,4.0,7.0,86,0.00,,,0.00,Wunderground v.1.15,2013-06-02 13:26:00,
2013-06-02 09:28:00,68.2,63.5,29.90,West,274,2.0,10.0,85,0.00,,,0.00,Wunderground v.1.15,2013-06-02 13:28:00,
2013-06-02 09:29:00,68.3,63.6,29.90,West,269,5.0,10.0,85,0.00,,,0.00,Wunderground v.1.15,2013-06-02 13:29:00,
2013-06-02 09:30:00,68.3,63.6,29.90,West,272,1.0,3.0,85,0.00,,,0.00,Wunderground v.1.15,2013-06-02 13:30:00,
2013-06-02 09:31:00,68.4,63.7,29.90,West,276,3.0,5.0,85,0.00,,,0.00,Wunderground v.1.15,2013-06-02 13:31:00,
2013-06-02 09:33:00,68.6,63.9,29.90,West,271,4.0,10.0,85,0.00,,,0.00,Wunderground v.1.15,2013-06-02 13:33:00,
2013-06-02 09:34:00,68.6,63.9,29.90,West,263,5.0,10.0,85,0.00,,,0.00,Wunderground v.1.15,2013-06-02 13:34:00,
2013-06-02 09:35:00,68.6,63.9,29.90,West,264,7.0,10.0,85,0.00,,,0.00,Wunderground v.1.15,2013-06-02 13:35:00,
2013-06-02 09:37:00,68.8,63.8,29.90,WSW,255,4.0,10.0,84,0.00,,,0.00,Wunderground v.1.15,2013-06-02 13:37:00,
2013-06-02 09:39:00,68.8,63.8,29.90,WSW,251,1.0,10.0,84,0.00,,,0.00,Wunderground v.1.15,2013-06-02 13:39:00,
2013-06-02 09:40:00,68.9,63.9,29.90,WSW,251,3.0,4.0,84,0.00,,,0.00,Wunderground v.1.15,2013-06-02 13:40:00,
2013-06-02 09:42:00,69.0,64.0,29.90,WSW,253,0.0,5.0,84,0.00,,,0.00,Wunderground v.1.15,2013-06-02 13:42:00,
2013-06-02 09:44:00,69.2,64.5,29.90,WSW,253,0.0,5.0,85,0.00,,,0.00,Wunderground v.1.15,2013-06-02 13:44:00,
2013-06-02 09:47:00,69.4,63.3,29.90,West,276,0.0,5.0,81,0.00,,,0.00,Wunderground v.1.15,2013-06-02 13:47:00,
2013-06-02 09:49:00,69.5,63.8,29.90,West,278,0.0,5.0,82,0.00,,,0.00,Wunderground v.1.15,2013-06-02 13:49:00,
2013-06-02 09:52:00,69.8,64.1,29.90,West,270,4.0,6.0,82,0.00,,,0.00,Wunderground v.1.15,2013-06-02 13:52:00,
2013-06-02 09:54:00,69.7,64.0,29.90,West,267,4.0,6.0,82,0.00,,,0.00,Wunderground v.1.15,2013-06-02 13:54:00,
2013-06-02 09:55:00,69.7,64.0,29.90,West,266,3.0,6.0,82,0.00,,,0.00,Wunderground v.1.15,2013-06-02 13:55:00,
2013-06-02 09:57:00,69.7,64.3,29.90,West,266,0.0,6.0,83,0.00,,,0.00,Wunderground v.1.15,2013-06-02 13:57:00,
2013-06-02 09:59:00,69.7,64.0,29.90,West,262,4.0,6.0,82,0.00,,,0.00,Wunderground v.1.15,2013-06-02 13:59:00,
2013-06-02 10:00:00,69.7,63.6,29.90,West,261,0.0,4.0,81,0.00,,,0.00,Wunderground v.1.15,2013-06-02 14:00:00,
2013-06-02 10:03:00,69.8,63.7,29.90,West,265,3.0,7.0,81,0.00,,,0.00,Wunderground v.1.15,2013-06-02 14:03:00,
2013-06-02 10:04:00,69.9,63.8,29.90,West,266,1.0,7.0,81,0.00,,,0.00,Wunderground v.1.15,2013-06-02 14:04:00,
2013-06-02 10:05:00,70.0,63.9,29.90,West,268,0.0,7.0,81,0.00,,,0.00,Wunderground v.1.15,2013-06-02 14:05:00,
2013-06-02 10:06:00,70.0,63.5,29.90,West,268,0.0,7.0,80,0.00,,,0.00,Wunderground v.1.15,2013-06-02 14:06:00,
2013-06-02 10:08:00,70.2,64.1,29.90,West,268,1.0,7.0,81,0.00,,,0.00,Wunderground v.1.15,2013-06-02 14:08:00,
2013-06-02 10:09:00,70.4,63.6,29.90,West,269,0.0,7.0,79,0.00,,,0.00,Wunderground v.1.15,2013-06-02 14:09:00,
2013-06-02 10:11:00,70.6,64.1,29.90,West,269,0.0,2.0,80,0.00,,,0.00,Wunderground v.1.15,2013-06-02 14:11:00,
2013-06-02 10:13:00,70.8,64.3,29.90,West,268,4.0,5.0,80,0.00,,,0.00,Wunderground v.1.15,2013-06-02 14:13:00,
2013-06-02 10:14:00,70.8,64.0,29.90,West,268,3.0,5.0,79,0.00,,,0.00,Wunderground v.1.15,2013-06-02 14:14:00,
2013-06-02 10:16:00,70.8,63.6,29.90,WSW,257,5.0,9.0,78,0.00,,,0.00,Wunderground v.1.15,2013-06-02 14:16:00,
2013-06-02 10:18:00,71.0,64.5,29.90,WSW,252,4.0,9.0,80,0.00,,,0.00,Wunderground v.1.15,2013-06-02 14:18:00,
2013-06-02 10:19:00,71.0,64.5,29.90,West,261,2.0,9.0,80,0.00,,,0.00,Wunderground v.1.15,2013-06-02 14:19:00,
2013-06-02 10:21:00,71.0,63.8,29.90,West,261,3.0,9.0,78,0.00,,,0.00,Wunderground v.1.15,2013-06-02 14:21:00,
2013-06-02 10:23:00,71.0,63.1,29.90,West,261,3.0,9.0,76,0.00,,,0.00,Wunderground v.1.15,2013-06-02 14:23:00,
2013-06-02 10:24:00,70.9,63.0,29.90,West,269,1.0,9.0,76,0.00,,,0.00,Wunderground v.1.15,2013-06-02 14:24:00,
2013-06-02 10:25:00,71.0,63.4,29.90,West,268,3.0,9.0,77,0.00,,,0.00,Wunderground v.1.15,2013-06-02 14:25:00,
2013-06-02 10:26:00,71.0,63.8,29.91,West,265,5.0,9.0,78,0.00,,,0.00,Wunderground v.1.15,2013-06-02 14:26:00,
2013-06-02 10:28:00,71.0,63.4,29.91,WSW,250,3.0,9.0,77,0.00,,,0.00,Wunderground v.1.15,2013-06-02 14:28:00,
2013-06-02 10:29:00,71.0,63.4,29.91,WSW,250,4.0,9.0,77,0.00,,,0.00,Wunderground v.1.15,2013-06-02 14:29:00,
2013-06-02 10:30:00,71.0,63.8,29.91,West,271,2.0,6.0,78,0.00,,,0.00,Wunderground v.1.15,2013-06-02 14:30:00,
2013-06-02 10:31:00,71.0,63.4,29.91,West,263,1.0,9.0,77,0.00,,,0.00,Wunderground v.1.15,2013-06-02 14:31:00,
2013-06-02 10:34:00,71.2,63.6,29.91,West,263,4.0,9.0,77,0.00,,,0.00,Wunderground v.1.15,2013-06-02 14:34:00,
2013-06-02 10:35:00,71.3,63.7,29.90,West,263,1.0,9.0,77,0.00,,,0.00,Wunderground v.1.15,2013-06-02 14:35:00,
2013-06-02 10:36:00,71.5,63.5,29.91,West,264,2.0,9.0,76,0.00,,,0.00,Wunderground v.1.15,2013-06-02 14:36:00,
2013-06-02 10:37:00,71.6,64.7,29.91,West,264,2.0,9.0,79,0.00,,,0.00,Wunderground v.1.15,2013-06-02 14:37:00,
2013-06-02 10:39:00,71.9,64.3,29.91,West,269,2.0,9.0,77,0.00,,,0.00,Wunderground v.1.15,2013-06-02 14:39:00,
2013-06-02 10:40:00,71.9,63.2,29.91,West,265,9.0,9.0,74,0.00,,,0.00,Wunderground v.1.15,2013-06-02 14:40:00,
2013-06-02 10:41:00,71.9,62.8,29.91,WSW,250,7.0,9.0,73,0.00,,,0.00,Wunderground v.1.15,2013-06-02 14:41:00,
2013-06-02 10:42:00,71.9,62.8,29.91,WSW,245,5.0,9.0,73,0.00,,,0.00,Wunderground v.1.15,2013-06-02 14:42:00,
2013-06-02 10:44:00,72.0,63.3,29.91,West,263,3.0,9.0,74,0.00,,,0.00,Wunderground v.1.15,2013-06-02 14:44:00,
2013-06-02 10:45:00,72.0,63.3,29.91,West,259,3.0,9.0,74,0.00,,,0.00,Wunderground v.1.15,2013-06-02 14:45:00,
2013-06-02 10:46:00,72.0,64.0,29.91,West,268,6.0,9.0,76,0.00,,,0.00,Wunderground v.1.15,2013-06-02 14:46:00,
2013-06-02 10:47:00,72.0,63.3,29.91,WSW,255,6.0,9.0,74,0.00,,,0.00,Wunderground v.1.15,2013-06-02 14:47:00,
2013-06-02 10:49:00,72.0,63.6,29.91,WSW,238,8.0,9.0,75,0.00,,,0.00,Wunderground v.1.15,2013-06-02 14:49:00,
2013-06-02 10:50:00,72.1,63.7,29.91,SW,223,8.0,8.0,75,0.00,,,0.00,Wunderground v.1.15,2013-06-02 14:50:00,
2013-06-02 10:51:00,72.1,63.4,29.91,WSW,246,4.0,8.0,74,0.00,,,0.00,Wunderground v.1.15,2013-06-02 14:51:00,
2013-06-02 10:52:00,72.1,63.7,29.91,WSW,245,3.0,8.0,75,0.00,,,0.00,Wunderground v.1.15,2013-06-02 14:52:00,
2013-06-02 10:55:00,72.2,63.4,29.91,WSW,239,6.0,8.0,74,0.00,,,0.00,Wunderground v.1.15,2013-06-02 14:55:00,
2013-06-02 10:57:00,72.3,63.5,29.91,SW,228,3.0,11.0,74,0.00,,,0.00,Wunderground v.1.15,2013-06-02 14:57:00,
2013-06-02 10:58:00,72.3,63.5,29.91,SW,228,3.0,11.0,74,0.00,,,0.00,Wunderground v.1.15,2013-06-02 14:58:00,
2013-06-02 11:00:00,72.5,63.7,29.91,SW,236,3.0,5.0,74,0.00,,,0.00,Wunderground v.1.15,2013-06-02 15:00:00,
2013-06-02 11:01:00,72.6,63.8,29.91,SW,236,2.0,5.0,74,0.00,,,0.00,Wunderground v.1.15,2013-06-02 15:01:00,
2013-06-02 11:02:00,72.6,64.6,29.91,SW,236,1.0,5.0,76,0.00,,,0.00,Wunderground v.1.15,2013-06-02 15:02:00,
2013-06-02 11:03:00,72.6,64.6,29.91,SW,236,1.0,5.0,76,0.00,,,0.00,Wunderground v.1.15,2013-06-02 15:03:00,
2013-06-02 11:05:00,72.7,63.9,29.91,WSW,237,6.0,8.0,74,0.00,,,0.00,Wunderground v.1.15,2013-06-02 15:05:00,
2013-06-02 11:06:00,72.7,63.9,29.91,WSW,237,5.0,8.0,74,0.00,,,0.00,Wunderground v.1.15,2013-06-02 15:06:00,
2013-06-02 11:07:00,72.7,63.9,29.91,SW,233,4.0,8.0,74,0.00,,,0.00,Wunderground v.1.15,2013-06-02 15:07:00,
2013-06-02 11:08:00,72.7,63.9,29.91,West,269,6.0,8.0,74,0.00,,,0.00,Wunderground v.1.15,2013-06-02 15:08:00,
2013-06-02 11:10:00,72.5,63.4,29.91,West,259,2.0,6.0,73,0.00,,,0.00,Wunderground v.1.15,2013-06-02 15:10:00,
2013-06-02 11:11:00,72.5,63.4,29.91,West,259,0.0,6.0,73,0.00,,,0.00,Wunderground v.1.15,2013-06-02 15:11:00,
2013-06-02 11:12:00,72.5,63.7,29.91,WSW,258,0.0,6.0,74,0.00,,,0.00,Wunderground v.1.15,2013-06-02 15:12:00,
2013-06-02 11:13:00,72.4,63.6,29.91,WSW,257,3.0,6.0,74,0.00,,,0.00,Wunderground v.1.15,2013-06-02 15:13:00,
2013-06-02 11:15:00,72.6,63.4,29.91,West,259,3.0,6.0,73,0.00,,,0.00,Wunderground v.1.15,2013-06-02 15:15:00,
2013-06-02 11:16:00,72.6,63.4,29.91,West,259,0.0,6.0,73,0.00,,,0.00,Wunderground v.1.15,2013-06-02 15:16:00,
2013-06-02 11:17:00,72.7,63.5,29.91,WSW,257,1.0,6.0,73,0.00,,,0.00,Wunderground v.1.15,2013-06-02 15:17:00,
2013-06-02 11:18:00,72.8,64.0,29.91,WSW,257,1.0,6.0,74,0.00,,,0.00,Wunderground v.1.15,2013-06-02 15:18:00,
2013-06-02 11:21:00,73.1,65.1,29.91,WSW,256,0.0,6.0,76,0.00,,,0.00,Wunderground v.1.15,2013-06-02 15:21:00,
2013-06-02 11:22:00,73.4,65.7,29.91,WSW,257,0.0,6.0,77,0.00,,,0.00,Wunderground v.1.15,2013-06-02 15:22:00,
2013-06-02 11:24:00,73.5,63.9,29.91,WSW,258,0.0,6.0,72,0.00,,,0.00,Wunderground v.1.15,2013-06-02 15:24:00,
2013-06-02 11:26:00,73.8,64.6,29.91,WSW,258,0.0,6.0,73,0.00,,,0.00,Wunderground v.1.15,2013-06-02 15:26:00,
2013-06-02 11:27:00,73.9,65.1,29.91,West,263,3.0,6.0,74,0.00,,,0.00,Wunderground v.1.15,2013-06-02 15:27:00,
2013-06-02 11:28:00,73.9,64.3,29.91,West,263,0.0,6.0,72,0.00,,,0.00,Wunderground v.1.15,2013-06-02 15:28:00,
2013-06-02 11:29:00,74.1,65.3,29.91,West,267,4.0,6.0,74,0.00,,,0.00,Wunderground v.1.15,2013-06-02 15:29:00,
2013-06-02 11:31:00,74.1,63.3,29.91,West,277,5.0,7.0,69,0.00,,,0.00,Wunderground v.1.15,2013-06-02 15:31:00,
2013-06-02 11:32:00,74.0,63.2,29.91,West,277,2.0,7.0,69,0.00,,,0.00,Wunderground v.1.15,2013-06-02 15:32:00,
2013-06-02 11:33:00,74.1,63.3,29.91,West,276,0.0,7.0,69,0.00,,,0.00,Wunderground v.1.15,2013-06-02 15:33:00,
2013-06-02 11:35:00,74.3,64.7,29.91,North,350,1.0,11.0,72,0.00,,,0.00,Wunderground v.1.15,2013-06-02 15:35:00,
2013-06-02 11:36:00,74.4,64.8,29.91,NNE,12,3.0,11.0,72,0.00,,,0.00,Wunderground v.1.15,2013-06-02 15:36:00,
2013-06-02 11:37:00,74.5,64.1,29.91,NNW,337,5.0,11.0,70,0.00,,,0.00,Wunderground v.1.15,2013-06-02 15:37:00,
2013-06-02 11:38:00,74.5,64.1,29.91,NNW,334,7.0,11.0,70,0.00,,,0.00,Wunderground v.1.15,2013-06-02 15:38:00,
2013-06-02 11:40:00,74.5,64.5,29.91,NW,315,0.0,6.0,71,0.00,,,0.00,Wunderground v.1.15,2013-06-02 15:40:00,
2013-06-02 11:41:00,74.4,64.4,29.91,NW,315,0.0,6.0,71,0.00,,,0.00,Wunderground v.1.15,2013-06-02 15:41:00,
2013-06-02 11:42:00,74.3,63.5,29.91,NW,313,0.0,6.0,69,0.00,,,0.00,Wunderground v.1.15,2013-06-02 15:42:00,
2013-06-02 11:43:00,74.3,65.1,29.91,NW,313,2.0,6.0,73,0.00,,,0.00,Wunderground v.1.15,2013-06-02 15:43:00,
2013-06-02 11:46:00,74.3,64.7,29.91,WSW,250,0.0,6.0,72,0.00,,,0.00,Wunderground v.1.15,2013-06-02 15:46:00,
2013-06-02 11:47:00,74.4,65.2,29.91,WSW,244,5.0,6.0,73,0.00,,,0.00,Wunderground v.1.15,2013-06-02 15:47:00,
2013-06-02 11:48:00,74.5,64.5,29.91,SW,214,3.0,6.0,71,0.00,,,0.00,Wunderground v.1.15,2013-06-02 15:48:00,
2013-06-02 11:51:00,74.4,63.1,29.91,West,273,6.0,9.0,68,0.00,,,0.00,Wunderground v.1.15,2013-06-02 15:51:00,
2013-06-02 11:52:00,74.4,63.6,29.91,WSW,255,6.0,9.0,69,0.00,,,0.00,Wunderground v.1.15,2013-06-02 15:52:00,
2013-06-02 11:53:00,74.2,62.5,29.91,WSW,237,6.0,9.0,67,0.00,,,0.00,Wunderground v.1.15,2013-06-02 15:53:00,
2013-06-02 11:54:00,74.2,64.2,29.91,WSW,244,4.0,11.0,71,0.00,,,0.00,Wunderground v.1.15,2013-06-02 15:54:00,
2013-06-02 11:56:00,74.1,63.3,29.91,SW,215,3.0,11.0,69,0.00,,,0.00,Wunderground v.1.15,2013-06-02 15:56:00,
2013-06-02 11:57:00,74.2,63.8,29.91,WSW,251,3.0,11.0,70,0.00,,,0.00,Wunderground v.1.15,2013-06-02 15:57:00,
2013-06-02 11:58:00,74.2,65.0,29.91,WSW,239,5.0,11.0,73,0.00,,,0.00,Wunderground v.1.15,2013-06-02 15:58:00,
2013-06-02 12:00:00,74.3,63.5,29.91,WSW,256,3.0,5.0,69,0.00,,,0.00,Wunderground v.1.15,2013-06-02 16:00:00,
2013-06-02 12:01:00,74.2,63.0,29.91,WSW,244,3.0,5.0,68,0.00,,,0.00,Wunderground v.1.15,2013-06-02 16:01:00,
2013-06-02 12:02:00,74.3,64.3,29.91,WNW,290,4.0,6.0,71,0.00,,,0.00,Wunderground v.1.15,2013-06-02 16:02:00,
2013-06-02 12:03:00,74.3,63.5,29.91,West,272,0.0,6.0,69,0.00,,,0.00,Wunderground v.1.15,2013-06-02 16:03:00,
2013-06-02 12:05:00,74.4,64.8,29.91,WSW,250,9.0,9.0,72,0.00,,,0.00,Wunderground v.1.15,2013-06-02 16:05:00,
2013-06-02 12:06:00,74.3,63.9,29.90,SSW,200,1.0,9.0,70,0.00,,,0.00,Wunderground v.1.15,2013-06-02 16:06:00,
2013-06-02 12:08:00,74.4,63.6,29.91,WSW,244,0.0,9.0,69,0.00,,,0.00,Wunderground v.1.15,2013-06-02 16:08:00,
2013-06-02 12:10:00,74.5,64.9,29.91,West,274,6.0,6.0,72,0.00,,,0.00,Wunderground v.1.15,2013-06-02 16:10:00,
2013-06-02 12:12:00,74.6,63.8,29.91,West,263,4.0,6.0,69,0.00,,,0.00,Wunderground v.1.15,2013-06-02 16:12:00,
2013-06-02 12:13:00,74.7,64.7,29.90,WNW,301,1.0,6.0,71,0.00,,,0.00,Wunderground v.1.15,2013-06-02 16:13:00,
2013-06-02 12:14:00,74.8,64.8,29.90,WNW,294,5.0,6.0,71,0.00,,,0.00,Wunderground v.1.15,2013-06-02 16:14:00,
2013-06-02 12:15:00,74.9,64.0,29.90,West,276,0.0,6.0,69,0.00,,,0.00,Wunderground v.1.15,2013-06-02 16:15:00,
2013-06-02 12:17:00,75.0,64.1,29.90,West,261,0.0,6.0,69,0.00,,,0.00,Wunderground v.1.15,2013-06-02 16:17:00,
2013-06-02 12:18:00,75.1,64.2,29.90,West,261,0.0,6.0,69,0.00,,,0.00,Wunderground v.1.15,2013-06-02 16:18:00,
2013-06-02 12:19:00,75.2,65.1,29.90,NNW,348,4.0,6.0,71,0.00,,,0.00,Wunderground v.1.15,2013-06-02 16:19:00,
2013-06-02 12:21:00,75.2,63.9,29.90,NNW,336,2.0,5.0,68,0.00,,,0.00,Wunderground v.1.15,2013-06-02 16:21:00,
2013-06-02 12:22:00,75.3,63.6,29.90,North,350,1.0,5.0,67,0.00,,,0.00,Wunderground v.1.15,2013-06-02 16:22:00,
2013-06-02 12:23:00,75.3,64.0,29.90,NNE,18,3.0,5.0,68,0.00,,,0.00,Wunderground v.1.15,2013-06-02 16:23:00,
2013-06-02 12:24:00,75.3,64.4,29.90,NNE,22,3.0,5.0,69,0.00,,,0.00,Wunderground v.1.15,2013-06-02 16:24:00,
2013-06-02 12:26:00,75.3,64.8,29.90,NNE,18,0.0,5.0,70,0.00,,,0.00,Wunderground v.1.15,2013-06-02 16:26:00,
2013-06-02 12:27:00,75.3,64.0,29.90,WNW,288,0.0,5.0,68,0.00,,,0.00,Wunderground v.1.15,2013-06-02 16:27:00,
2013-06-02 12:28:00,75.3,64.0,29.90,SW,236,4.0,5.0,68,0.00,,,0.00,Wunderground v.1.15,2013-06-02 16:28:00,
2013-06-02 12:29:00,75.3,64.4,29.90,SW,234,3.0,6.0,69,0.00,,,0.00,Wunderground v.1.15,2013-06-02 16:29:00,
2013-06-02 12:31:00,75.4,64.1,29.90,SW,234,3.0,5.0,68,0.00,,,0.00,Wunderground v.1.15,2013-06-02 16:31:00,
2013-06-02 12:32:00,75.4,64.9,29.90,SW,234,1.0,5.0,70,0.00,,,0.00,Wunderground v.1.15,2013-06-02 16:32:00,
2013-06-02 12:33:00,75.5,64.6,29.90,SW,215,4.0,6.0,69,0.00,,,0.00,Wunderground v.1.15,2013-06-02 16:33:00,
2013-06-02 12:34:00,75.5,64.6,29.90,SW,216,5.0,6.0,69,0.00,,,0.00,Wunderground v.1.15,2013-06-02 16:34:00,
2013-06-02 12:36:00,75.5,63.3,29.90,SW,219,1.0,10.0,66,0.00,,,0.00,Wunderground v.1.15,2013-06-02 16:36:00,
2013-06-02 12:38:00,75.5,63.8,29.90,WSW,242,5.0,10.0,67,0.00,,,0.00,Wunderground v.1.15,2013-06-02 16:38:00,
2013-06-02 12:39:00,75.4,63.2,29.90,WSW,251,2.0,10.0,66,0.00,,,0.00,Wunderground v.1.15,2013-06-02 16:39:00,
2013-06-02 12:42:00,75.3,63.2,29.90,WSW,248,2.0,7.0,66,0.00,,,0.00,Wunderground v.1.15,2013-06-02 16:42:00,
2013-06-02 12:43:00,75.3,63.2,29.90,WSW,248,0.0,7.0,66,0.00,,,0.00,Wunderground v.1.15,2013-06-02 16:43:00,
2013-06-02 12:44:00,75.3,63.6,29.90,WSW,248,0.0,7.0,67,0.00,,,0.00,Wunderground v.1.15,2013-06-02 16:44:00,
2013-06-02 12:45:00,75.2,63.5,29.90,SW,226,2.0,7.0,67,0.00,,,0.00,Wunderground v.1.15,2013-06-02 16:45:00,
2013-06-02 12:48:00,75.4,63.7,29.90,West,269,4.0,7.0,67,0.00,,,0.00,Wunderground v.1.15,2013-06-02 16:48:00,
2013-06-02 12:49:00,75.4,63.2,29.90,WSW,241,0.0,7.0,66,0.00,,,0.00,Wunderground v.1.15,2013-06-02 16:49:00,
2013-06-02 12:50:00,75.4,63.7,29.90,WSW,243,2.0,3.0,67,0.00,,,0.00,Wunderground v.1.15,2013-06-02 16:50:00,
2013-06-02 12:53:00,75.1,63.4,29.90,West,260,2.0,4.0,67,0.00,,,0.00,Wunderground v.1.15,2013-06-02 16:53:00,
2013-06-02 12:54:00,74.9,62.8,29.90,West,261,0.0,4.0,66,0.00,,,0.00,Wunderground v.1.15,2013-06-02 16:54:00,
2013-06-02 12:55:00,74.9,62.8,29.90,West,261,0.0,4.0,66,0.00,,,0.00,Wunderground v.1.15,2013-06-02 16:55:00,
2013-06-02 12:58:00,74.5,63.2,29.90,NW,326,0.0,6.0,68,0.00,,,0.00,Wunderground v.1.15,2013-06-02 16:58:00,
2013-06-02 12:59:00,74.4,63.6,29.90,North,354,5.0,6.0,69,0.00,,,0.00,Wunderground v.1.15,2013-06-02 16:59:00,
2013-06-02 13:00:00,74.4,63.6,29.90,NNW,333,3.0,3.0,69,0.00,,,0.00,Wunderground v.1.15,2013-06-02 17:00:00,
2013-06-02 13:03:00,74.4,64.0,29.90,NW,326,2.0,4.0,70,0.00,,,0.00,Wunderground v.1.15,2013-06-02 17:03:00,
2013-06-02 13:04:00,74.5,64.5,29.90,West,263,9.0,9.0,71,0.00,,,0.00,Wunderground v.1.15,2013-06-02 17:04:00,
2013-06-02 13:05:00,74.5,64.5,29.90,West,274,6.0,9.0,71,0.00,,,0.00,Wunderground v.1.15,2013-06-02 17:05:00,
2013-06-02 13:09:00,74.9,63.6,29.90,NW,321,8.0,9.0,68,0.00,,,0.00,Wunderground v.1.15,2013-06-02 17:09:00,
2013-06-02 13:10:00,74.9,63.2,29.90,NW,306,1.0,3.0,67,0.00,,,0.00,Wunderground v.1.15,2013-06-02 17:10:00,
2013-06-02 13:14:00,75.1,63.8,29.90,SW,224,6.0,6.0,68,0.00,,,0.00,Wunderground v.1.15,2013-06-02 17:14:00,
2013-06-02 13:15:00,75.2,64.3,29.90,West,270,4.0,7.0,69,0.00,,,0.00,Wunderground v.1.15,2013-06-02 17:15:00,
2013-06-02 13:19:00,75.2,64.7,29.90,SW,236,5.0,7.0,70,0.00,,,0.00,Wunderground v.1.15,2013-06-02 17:19:00,
2013-06-02 13:20:00,75.2,63.9,29.90,WSW,248,5.0,5.0,68,0.00,,,0.00,Wunderground v.1.15,2013-06-02 17:20:00,
2013-06-02 13:24:00,75.1,64.2,29.90,SW,234,5.0,7.0,69,0.00,,,0.00,Wunderground v.1.15,2013-06-02 17:24:00,
2013-06-02 13:25:00,75.1,63.8,29.90,WSW,245,9.0,10.0,68,0.00,,,0.00,Wunderground v.1.15,2013-06-02 17:25:00,
2013-06-02 13:26:00,75.1,64.2,29.90,WSW,242,8.0,10.0,69,0.00,,,0.00,Wunderground v.1.15,2013-06-02 17:26:00,
2013-06-02 13:29:00,75.4,64.1,29.90,WSW,257,8.0,10.0,68,0.00,,,0.00,Wunderground v.1.15,2013-06-02 17:29:00,
2013-06-02 13:30:00,75.4,64.1,29.90,West,265,5.0,7.0,68,0.00,,,0.00,Wunderground v.1.15,2013-06-02 17:30:00,
2013-06-02 13:31:00,75.5,63.3,29.90,WSW,246,0.0,9.0,66,0.00,,,0.00,Wunderground v.1.15,2013-06-02 17:31:00,
2013-06-02 13:35:00,75.8,63.6,29.90,North,359,0.0,9.0,66,0.00,,,0.00,Wunderground v.1.15,2013-06-02 17:35:00,
2013-06-02 13:36:00,76.0,63.4,29.90,West,273,3.0,9.0,65,0.00,,,0.00,Wunderground v.1.15,2013-06-02 17:36:00,
2013-06-02 13:40:00,75.8,62.8,29.90,NW,309,0.0,4.0,64,0.00,,,0.00,Wunderground v.1.15,2013-06-02 17:40:00,
2013-06-02 13:41:00,75.7,64.0,29.90,NNW,345,10.0,10.0,67,0.00,,,0.00,Wunderground v.1.15,2013-06-02 17:41:00,
2013-06-02 13:45:00,75.4,64.9,29.90,NNW,348,0.0,10.0,70,0.00,,,0.00,Wunderground v.1.15,2013-06-02 17:45:00,
2013-06-02 13:46:00,75.4,64.1,29.91,North,352,0.0,10.0,68,0.00,,,0.00,Wunderground v.1.15,2013-06-02 17:46:00,
2013-06-02 13:50:00,75.8,64.5,29.90,NW,309,4.0,4.0,68,0.00,,,0.00,Wunderground v.1.15,2013-06-02 17:50:00,
2013-06-02 13:51:00,75.9,63.7,29.90,NW,313,0.0,4.0,66,0.00,,,0.00,Wunderground v.1.15,2013-06-02 17:51:00,
2013-06-02 13:52:00,76.1,65.2,29.90,NNW,328,0.0,4.0,69,0.00,,,0.00,Wunderground v.1.15,2013-06-02 17:52:00,
2013-06-02 13:55:00,76.5,63.9,29.90,NW,311,2.0,5.0,65,0.00,,,0.00,Wunderground v.1.15,2013-06-02 17:55:00,
2013-06-02 13:56:00,76.6,65.2,29.90,NW,321,0.0,5.0,68,0.00,,,0.00,Wunderground v.1.15,2013-06-02 17:56:00,
2013-06-02 13:57:00,76.8,64.1,29.90,NNW,338,0.0,5.0,65,0.00,,,0.00,Wunderground v.1.15,2013-06-02 17:57:00,
2013-06-02 14:00:00,77.0,63.9,29.90,WNW,301,4.0,4.0,64,0.00,,,0.00,Wunderground v.1.15,2013-06-02 18:00:00,
2013-06-02 14:01:00,77.0,63.9,29.90,WNW,290,0.0,5.0,64,0.00,,,0.00,Wunderground v.1.15,2013-06-02 18:01:00,
2013-06-02 14:02:00,77.0,63.9,29.90,WNW,290,4.0,5.0,64,0.00,,,0.00,Wunderground v.1.15,2013-06-02 18:02:00,
2013-06-02 14:05:00,76.6,63.5,29.90,WNW,294,1.0,5.0,64,0.00,,,0.00,Wunderground v.1.15,2013-06-02 18:05:00,
2013-06-02 14:06:00,76.6,63.5,29.90,NW,314,5.0,5.0,64,0.00,,,0.00,Wunderground v.1.15,2013-06-02 18:06:00,
2013-06-02 14:07:00,76.3,62.8,29.90,WNW,302,2.0,5.0,63,0.00,,,0.00,Wunderground v.1.15,2013-06-02 18:07:00,
2013-06-02 14:08:00,76.2,63.6,29.90,North,350,5.0,8.0,65,0.00,,,0.00,Wunderground v.1.15,2013-06-02 18:08:00,
2013-06-02 14:11:00,75.7,62.7,29.90,WNW,292,0.0,4.0,64,0.00,,,0.00,Wunderground v.1.15,2013-06-02 18:11:00,
2013-06-02 14:12:00,75.6,63.4,29.90,WNW,292,2.0,4.0,66,0.00,,,0.00,Wunderground v.1.15,2013-06-02 18:12:00,
2013-06-02 14:13:00,75.5,63.8,29.90,WNW,292,0.0,4.0,67,0.00,,,0.00,Wunderground v.1.15,2013-06-02 18:13:00,
2013-06-02 14:16:00,75.4,62.8,29.90,WNW,287,6.0,7.0,65,0.00,,,0.00,Wunderground v.1.15,2013-06-02 18:16:00,
2013-06-02 14:17:00,75.4,63.2,29.90,West,269,4.0,7.0,66,0.00,,,0.00,Wunderground v.1.15,2013-06-02 18:17:00,
2013-06-02 14:18:00,75.5,64.2,29.90,West,279,4.0,7.0,68,0.00,,,0.00,Wunderground v.1.15,2013-06-02 18:18:00,
2013-06-02 14:21:00,75.8,63.6,29.90,West,267,2.0,6.0,66,0.00,,,0.00,Wunderground v.1.15,2013-06-02 18:21:00,
2013-06-02 14:22:00,75.9,63.7,29.89,West,267,1.0,6.0,66,0.00,,,0.00,Wunderground v.1.15,2013-06-02 18:22:00,
2013-06-02 14:23:00,76.0,63.4,29.90,WNW,303,0.0,6.0,65,0.00,,,0.00,Wunderground v.1.15,2013-06-02 18:23:00,
2013-06-02 14:27:00,76.4,62.4,29.89,WNW,303,3.0,6.0,62,0.00,,,0.00,Wunderground v.1.15,2013-06-02 18:27:00,
2013-06-02 14:28:00,76.4,63.8,29.90,WNW,302,4.0,6.0,65,0.00,,,0.00,Wunderground v.1.15,2013-06-02 18:28:00,
2013-06-02 14:32:00,76.4,63.3,29.89,WNW,302,0.0,6.0,64,0.00,,,0.00,Wunderground v.1.15,2013-06-02 18:32:00,
2013-06-02 14:33:00,76.3,63.7,29.90,West,259,5.0,9.0,65,0.00,,,0.00,Wunderground v.1.15,2013-06-02 18:33:00,
2013-06-02 14:37:00,75.9,63.3,29.90,WNW,287,5.0,10.0,65,0.00,,,0.00,Wunderground v.1.15,2013-06-02 18:37:00,
2013-06-02 14:38:00,75.8,62.8,29.90,NW,322,6.0,10.0,64,0.00,,,0.00,Wunderground v.1.15,2013-06-02 18:38:00,
2013-06-02 14:42:00,75.6,63.4,29.90,WNW,303,0.0,4.0,66,0.00,,,0.00,Wunderground v.1.15,2013-06-02 18:42:00,
2013-06-02 14:43:00,75.6,63.4,29.90,NW,304,1.0,4.0,66,0.00,,,0.00,Wunderground v.1.15,2013-06-02 18:43:00,
2013-06-02 14:44:00,75.6,64.3,29.89,NW,321,2.0,5.0,68,0.00,,,0.00,Wunderground v.1.15,2013-06-02 18:44:00,
2013-06-02 14:48:00,76.1,63.9,29.90,WNW,303,5.0,12.0,66,0.00,,,0.00,Wunderground v.1.15,2013-06-02 18:48:00,
2013-06-02 14:49:00,76.3,63.7,29.90,North,4,0.0,12.0,65,0.00,,,0.00,Wunderground v.1.15,2013-06-02 18:49:00,
2013-06-02 14:53:00,76.5,63.9,29.90,West,265,5.0,12.0,65,0.00,,,0.00,Wunderground v.1.15,2013-06-02 18:53:00,
2013-06-02 14:54:00,76.5,64.7,29.90,WNW,282,2.0,12.0,67,0.00,,,0.00,Wunderground v.1.15,2013-06-02 18:54:00,
2013-06-02 14:58:00,76.4,62.4,29.90,WNW,285,2.0,12.0,62,0.00,,,0.00,Wunderground v.1.15,2013-06-02 18:58:00,
2013-06-02 14:59:00,76.5,62.5,29.90,West,261,8.0,12.0,62,0.00,,,0.00,Wunderground v.1.15,2013-06-02 18:59:00,
2013-06-02 15:03:00,76.9,64.2,29.89,West,264,2.0,7.0,65,0.00,,,0.00,Wunderground v.1.15,2013-06-02 19:03:00,
2013-06-02 15:04:00,77.0,64.3,29.89,West,274,6.0,7.0,65,0.00,,,0.00,Wunderground v.1.15,2013-06-02 19:04:00,
2013-06-02 15:05:00,77.0,63.4,29.89,WNW,284,6.0,10.0,63,0.00,,,0.00,Wunderground v.1.15,2013-06-02 19:05:00,
2013-06-02 15:09:00,76.8,64.6,29.90,NW,315,0.0,10.0,66,0.00,,,0.00,Wunderground v.1.15,2013-06-02 19:09:00,
2013-06-02 15:10:00,76.7,64.5,29.90,WNW,288,3.0,4.0,66,0.00,,,0.00,Wunderground v.1.15,2013-06-02 19:10:00,
2013-06-02 15:14:00,76.2,64.0,29.90,WNW,286,2.0,13.0,66,0.00,,,0.00,Wunderground v.1.15,2013-06-02 19:14:00,
2013-06-02 15:16:00,75.9,63.3,29.90,West,259,0.0,13.0,65,0.00,,,0.00,Wunderground v.1.15,2013-06-02 19:16:00,
2013-06-02 15:19:00,75.7,64.0,29.90,WSW,252,4.0,13.0,67,0.00,,,0.00,Wunderground v.1.15,2013-06-02 19:19:00,
2013-06-02 15:20:00,75.7,64.4,29.90,WSW,258,4.0,5.0,68,0.00,,,0.00,Wunderground v.1.15,2013-06-02 19:20:00,
2013-06-02 15:21:00,75.8,63.2,29.90,West,263,2.0,7.0,65,0.00,,,0.00,Wunderground v.1.15,2013-06-02 19:21:00,
2013-06-02 15:24:00,75.9,64.6,29.90,WSW,251,4.0,7.0,68,0.00,,,0.00,Wunderground v.1.15,2013-06-02 19:24:00,
2013-06-02 15:25:00,76.0,64.7,29.90,WSW,254,4.0,7.0,68,0.00,,,0.00,Wunderground v.1.15,2013-06-02 19:25:00,
2013-06-02 15:26:00,76.3,64.5,29.90,WSW,258,2.0,9.0,67,0.00,,,0.00,Wunderground v.1.15,2013-06-02 19:26:00,
2013-06-02 15:29:00,76.7,64.5,29.90,NNE,32,3.0,10.0,66,0.00,,,0.00,Wunderground v.1.15,2013-06-02 19:29:00,
2013-06-02 15:30:00,76.9,65.1,29.90,NNW,332,6.0,7.0,67,0.00,,,0.00,Wunderground v.1.15,2013-06-02 19:30:00,
2013-06-02 15:31:00,76.9,63.3,29.90,NNW,341,4.0,10.0,63,0.00,,,0.00,Wunderground v.1.15,2013-06-02 19:31:00,
2013-06-02 15:35:00,76.9,63.3,29.89,WNW,301,5.0,10.0,63,0.00,,,0.00,Wunderground v.1.15,2013-06-02 19:35:00,
2013-06-02 15:36:00,76.7,63.2,29.90,SW,236,3.0,10.0,63,0.00,,,0.00,Wunderground v.1.15,2013-06-02 19:36:00,
2013-06-02 15:37:00,76.5,63.0,29.90,West,280,0.0,10.0,63,0.00,,,0.00,Wunderground v.1.15,2013-06-02 19:37:00,
2013-06-02 15:40:00,76.0,62.9,29.90,NW,309,1.0,3.0,64,0.00,,,0.00,Wunderground v.1.15,2013-06-02 19:40:00,
2013-06-02 15:41:00,75.9,62.8,29.90,NW,305,0.0,3.0,64,0.00,,,0.00,Wunderground v.1.15,2013-06-02 19:41:00,
2013-06-02 15:42:00,75.7,63.5,29.89,WSW,253,0.0,4.0,66,0.00,,,0.00,Wunderground v.1.15,2013-06-02 19:42:00,
2013-06-02 15:45:00,75.5,63.3,29.90,NW,319,0.0,4.0,66,0.00,,,0.00,Wunderground v.1.15,2013-06-02 19:45:00,
2013-06-02 15:46:00,75.5,64.2,29.90,NW,311,0.0,4.0,68,0.00,,,0.00,Wunderground v.1.15,2013-06-02 19:46:00,
2013-06-02 15:47:00,75.3,63.6,29.89,NW,307,0.0,4.0,67,0.00,,,0.00,Wunderground v.1.15,2013-06-02 19:47:00,
2013-06-02 15:50:00,75.2,63.5,29.90,NNW,333,4.0,6.0,67,0.00,,,0.00,Wunderground v.1.15,2013-06-02 19:50:00,
2013-06-02 15:51:00,75.1,63.8,29.89,NNW,337,0.0,6.0,68,0.00,,,0.00,Wunderground v.1.15,2013-06-02 19:51:00,
2013-06-02 15:52:00,75.0,63.3,29.90,West,267,0.0,12.0,67,0.00,,,0.00,Wunderground v.1.15,2013-06-02 19:52:00,
2013-06-02 15:56:00,74.7,62.1,29.90,NNW,329,0.0,12.0,65,0.00,,,0.00,Wunderground v.1.15,2013-06-02 19:56:00,
2013-06-02 15:57:00,74.7,63.4,29.90,NNW,329,0.0,12.0,68,0.00,,,0.00,Wunderground v.1.15,2013-06-02 19:57:00,
2013-06-02 15:58:00,74.7,63.4,29.90,NW,326,2.0,12.0,68,0.00,,,0.00,Wunderground v.1.15,2013-06-02 19:58:00,
2013-06-02 16:01:00,74.9,62.8,29.90,West,260,1.0,5.0,66,0.00,,,0.00,Wunderground v.1.15,2013-06-02 20:01:00,
2013-06-02 16:03:00,75.0,62.4,29.90,NW,319,1.0,6.0,65,0.00,,,0.00,Wunderground v.1.15,2013-06-02 20:03:00,
2013-06-02 16:06:00,75.6,64.7,29.89,West,270,0.0,6.0,69,0.00,,,0.00,Wunderground v.1.15,2013-06-02 20:06:00,
2013-06-02 16:07:00,75.8,64.1,29.89,WSW,237,6.0,6.0,67,0.00,,,0.00,Wunderground v.1.15,2013-06-02 20:07:00,
2013-06-02 16:08:00,76.0,63.8,29.89,WSW,251,2.0,6.0,66,0.00,,,0.00,Wunderground v.1.15,2013-06-02 20:08:00,
2013-06-02 16:11:00,76.5,63.9,29.89,NNW,337,3.0,7.0,65,0.00,,,0.00,Wunderground v.1.15,2013-06-02 20:11:00,
2013-06-02 16:12:00,76.6,62.6,29.89,NNW,329,3.0,7.0,62,0.00,,,0.00,Wunderground v.1.15,2013-06-02 20:12:00,
2013-06-02 16:13:00,76.6,63.1,29.89,NW,314,3.0,7.0,63,0.00,,,0.00,Wunderground v.1.15,2013-06-02 20:13:00,
2013-06-02 16:16:00,76.7,63.6,29.89,NNW,333,4.0,7.0,64,0.00,,,0.00,Wunderground v.1.15,2013-06-02 20:16:00,
2013-06-02 16:17:00,76.8,63.2,29.89,WNW,296,2.0,7.0,63,0.00,,,0.00,Wunderground v.1.15,2013-06-02 20:17:00,
2013-06-02 16:18:00,76.8,63.7,29.89,WNW,302,4.0,7.0,64,0.00,,,0.00,Wunderground v.1.15,2013-06-02 20:18:00,
2013-06-02 16:19:00,76.9,63.8,29.89,North,349,6.0,7.0,64,0.00,,,0.00,Wunderground v.1.15,2013-06-02 20:19:00,
2013-06-02 16:21:00,76.9,63.3,29.89,WNW,286,0.0,4.0,63,0.00,,,0.00,Wunderground v.1.15,2013-06-02 20:21:00,
2013-06-02 16:23:00,76.8,62.3,29.89,NW,313,0.0,4.0,61,0.00,,,0.00,Wunderground v.1.15,2013-06-02 20:23:00,
2013-06-02 16:24:00,76.7,63.2,29.89,NW,319,0.0,4.0,63,0.00,,,0.00,Wunderground v.1.15,2013-06-02 20:24:00,
2013-06-02 16:27:00,76.6,64.0,29.89,WNW,298,0.0,12.0,65,0.00,,,0.00,Wunderground v.1.15,2013-06-02 20:27:00,
2013-06-02 16:28:00,76.5,62.5,29.89,NNW,344,3.0,12.0,62,0.00,,,0.00,Wunderground v.1.15,2013-06-02 20:28:00,
2013-06-02 16:29:00,76.6,64.0,29.89,SW,228,5.0,12.0,65,0.00,,,0.00,Wunderground v.1.15,2013-06-02 20:29:00,
2013-06-02 16:30:00,76.7,63.6,29.89,West,263,4.0,5.0,64,0.00,,,0.00,Wunderground v.1.15,2013-06-02 20:30:00,
2013-06-02 16:32:00,77.0,63.4,29.89,North,350,6.0,14.0,63,0.00,,,0.00,Wunderground v.1.15,2013-06-02 20:32:00,
2013-06-02 16:33:00,77.0,63.0,29.89,WSW,257,6.0,14.0,62,0.00,,,0.00,Wunderground v.1.15,2013-06-02 20:33:00,
2013-06-02 16:35:00,77.1,63.1,29.88,SW,234,10.0,14.0,62,0.00,,,0.00,Wunderground v.1.15,2013-06-02 20:35:00,
2013-06-02 16:37:00,77.1,64.0,29.88,NW,317,0.0,14.0,64,0.00,,,0.00,Wunderground v.1.15,2013-06-02 20:37:00,
2013-06-02 16:38:00,77.1,64.0,29.89,NNW,333,0.0,14.0,64,0.00,,,0.00,Wunderground v.1.15,2013-06-02 20:38:00,
2013-06-02 16:39:00,77.1,64.0,29.89,NNW,328,5.0,14.0,64,0.00,,,0.00,Wunderground v.1.15,2013-06-02 20:39:00,
2013-06-02 16:40:00,77.0,63.4,29.89,SW,225,2.0,4.0,63,0.00,,,0.00,Wunderground v.1.15,2013-06-02 20:40:00,
2013-06-02 16:41:00,77.0,63.4,29.89,West,275,4.0,5.0,63,0.00,,,0.00,Wunderground v.1.15,2013-06-02 20:41:00,
2013-06-02 16:42:00,76.8,62.8,29.89,SW,224,2.0,9.0,62,0.00,,,0.00,Wunderground v.1.15,2013-06-02 20:42:00,
2013-06-02 16:43:00,76.6,62.6,29.89,WNW,292,2.0,9.0,62,0.00,,,0.00,Wunderground v.1.15,2013-06-02 20:43:00,
2013-06-02 16:44:00,76.6,62.6,29.89,West,276,0.0,9.0,62,0.00,,,0.00,Wunderground v.1.15,2013-06-02 20:44:00,
2013-06-02 16:45:00,76.4,62.9,29.89,West,276,0.0,9.0,63,0.00,,,0.00,Wunderground v.1.15,2013-06-02 20:45:00,
2013-06-02 16:46:00,76.3,62.8,29.89,NW,319,0.0,9.0,63,0.00,,,0.00,Wunderground v.1.15,2013-06-02 20:46:00,
2013-06-02 16:48:00,76.2,63.1,29.89,West,280,1.0,9.0,64,0.00,,,0.00,Wunderground v.1.15,2013-06-02 20:48:00,
2013-06-02 16:49:00,76.2,63.1,29.89,WSW,249,0.0,9.0,64,0.00,,,0.00,Wunderground v.1.15,2013-06-02 20:49:00,
2013-06-02 16:50:00,76.2,63.6,29.89,NNW,332,6.0,6.0,65,0.00,,,0.00,Wunderground v.1.15,2013-06-02 20:50:00,
2013-06-02 16:51:00,76.1,62.6,29.89,NW,306,1.0,6.0,63,0.00,,,0.00,Wunderground v.1.15,2013-06-02 20:51:00,
2013-06-02 16:53:00,76.1,63.0,29.89,West,263,2.0,7.0,64,0.00,,,0.00,Wunderground v.1.15,2013-06-02 20:53:00,
2013-06-02 16:54:00,76.1,63.0,29.89,NW,316,0.0,7.0,64,0.00,,,0.00,Wunderground v.1.15,2013-06-02 20:54:00,
2013-06-02 16:55:00,76.1,63.0,29.89,WNW,298,2.0,7.0,64,0.00,,,0.00,Wunderground v.1.15,2013-06-02 20:55:00,
2013-06-02 16:56:00,76.1,63.0,29.89,WSW,253,11.0,12.0,64,0.00,,,0.00,Wunderground v.1.15,2013-06-02 20:56:00,
2013-06-02 16:58:00,75.7,61.8,29.89,West,259,9.0,13.0,62,0.00,,,0.00,Wunderground v.1.15,2013-06-02 20:58:00,
2013-06-02 16:59:00,75.6,61.7,29.89,NW,305,9.0,14.0,62,0.00,,,0.00,Wunderground v.1.15,2013-06-02 20:59:00,
2013-06-02 17:00:00,75.5,62.0,29.89,WNW,300,4.0,6.0,63,0.00,,,0.00,Wunderground v.1.15,2013-06-02 21:00:00,
2013-06-02 17:01:00,75.2,62.2,29.89,WSW,252,6.0,6.0,64,0.00,,,0.00,Wunderground v.1.15,2013-06-02 21:01:00,
2013-06-02 17:04:00,74.9,62.3,29.89,WNW,292,2.0,8.0,65,0.00,,,0.00,Wunderground v.1.15,2013-06-02 21:04:00,
2013-06-02 17:05:00,74.7,62.1,29.89,SW,233,3.0,8.0,65,0.00,,,0.00,Wunderground v.1.15,2013-06-02 21:05:00,
2013-06-02 17:07:00,74.6,62.1,29.89,WSW,253,7.0,8.0,65,0.00,,,0.00,Wunderground v.1.15,2013-06-02 21:07:00,
2013-06-02 17:09:00,74.5,62.0,29.89,West,261,4.0,8.0,65,0.00,,,0.00,Wunderground v.1.15,2013-06-02 21:09:00,
2013-06-02 17:10:00,74.5,62.0,29.89,WSW,252,6.0,10.0,65,0.00,,,0.00,Wunderground v.1.15,2013-06-02 21:10:00,
2013-06-02 17:11:00,74.5,61.5,29.89,WNW,295,2.0,10.0,64,0.00,,,0.00,Wunderground v.1.15,2013-06-02 21:11:00,
2013-06-02 17:12:00,74.4,61.9,29.89,NW,325,2.0,10.0,65,0.00,,,0.00,Wunderground v.1.15,2013-06-02 21:12:00,
2013-06-02 17:14:00,74.2,62.1,29.89,West,276,0.0,10.0,66,0.00,,,0.00,Wunderground v.1.15,2013-06-02 21:14:00,
2013-06-02 17:15:00,74.2,61.7,29.89,NNW,337,5.0,10.0,65,0.00,,,0.00,Wunderground v.1.15,2013-06-02 21:15:00,
2013-06-02 17:16:00,74.1,62.0,29.89,NW,321,0.0,10.0,66,0.00,,,0.00,Wunderground v.1.15,2013-06-02 21:16:00,
2013-06-02 17:17:00,74.1,62.0,29.89,NNW,343,0.0,10.0,66,0.00,,,0.00,Wunderground v.1.15,2013-06-02 21:17:00,
2013-06-02 17:19:00,74.0,61.9,29.90,West,274,2.0,10.0,66,0.00,,,0.00,Wunderground v.1.15,2013-06-02 21:19:00,
2013-06-02 17:20:00,74.0,62.8,29.90,West,272,1.0,3.0,68,0.00,,,0.00,Wunderground v.1.15,2013-06-02 21:20:00,
2013-06-02 17:21:00,74.0,62.8,29.90,WSW,252,0.0,5.0,68,0.00,,,0.00,Wunderground v.1.15,2013-06-02 21:21:00,
2013-06-02 17:22:00,74.0,63.2,29.90,NW,323,1.0,5.0,69,0.00,,,0.00,Wunderground v.1.15,2013-06-02 21:22:00,
2013-06-02 17:25:00,74.0,62.8,29.90,NNW,330,5.0,12.0,68,0.00,,,0.00,Wunderground v.1.15,2013-06-02 21:25:00,
2013-06-02 17:26:00,74.0,62.3,29.90,NNW,338,0.0,12.0,67,0.00,,,0.00,Wunderground v.1.15,2013-06-02 21:26:00,
2013-06-02 17:27:00,74.0,62.8,29.90,NNW,346,2.0,12.0,68,0.00,,,0.00,Wunderground v.1.15,2013-06-02 21:27:00,
2013-06-02 17:30:00,74.1,62.4,29.90,West,278,3.0,4.0,67,0.00,,,0.00,Wunderground v.1.15,2013-06-02 21:30:00,
2013-06-02 17:32:00,74.1,61.1,29.90,West,279,0.0,9.0,64,0.00,,,0.00,Wunderground v.1.15,2013-06-02 21:32:00,
2013-06-02 17:35:00,74.0,61.9,29.90,North,1,0.0,9.0,66,0.00,,,0.00,Wunderground v.1.15,2013-06-02 21:35:00,
2013-06-02 17:37:00,74.0,61.5,29.90,SW,223,3.0,9.0,65,0.00,,,0.00,Wunderground v.1.15,2013-06-02 21:37:00,
2013-06-02 17:40:00,73.9,61.4,29.90,NNE,12,3.0,6.0,65,0.00,,,0.00,Wunderground v.1.15,2013-06-02 21:40:00,
2013-06-02 17:42:00,73.8,61.3,29.90,North,360,9.0,10.0,65,0.00,,,0.00,Wunderground v.1.15,2013-06-02 21:42:00,
2013-06-02 17:43:00,73.7,61.2,29.90,NNW,328,10.0,10.0,65,0.00,,,0.00,Wunderground v.1.15,2013-06-02 21:43:00,
2013-06-02 17:45:00,73.6,62.4,29.90,NW,314,2.0,10.0,68,0.00,,,0.00,Wunderground v.1.15,2013-06-02 21:45:00,
2013-06-02 17:46:00,73.6,62.4,29.90,NNW,328,0.0,10.0,68,0.00,,,0.00,Wunderground v.1.15,2013-06-02 21:46:00,
2013-06-02 17:47:00,73.5,61.9,29.90,North,352,5.0,10.0,67,0.00,,,0.00,Wunderground v.1.15,2013-06-02 21:47:00,
2013-06-02 17:48:00,73.5,61.9,29.90,NNW,336,0.0,10.0,67,0.00,,,0.00,Wunderground v.1.15,2013-06-02 21:48:00,
2013-06-02 17:50:00,73.5,62.7,29.90,North,1,3.0,5.0,69,0.00,,,0.00,Wunderground v.1.15,2013-06-02 21:50:00,
2013-06-02 17:51:00,73.5,62.7,29.90,North,3,5.0,5.0,69,0.00,,,0.00,Wunderground v.1.15,2013-06-02 21:51:00,
2013-06-02 17:52:00,73.5,62.3,29.90,NNW,328,0.0,5.0,68,0.00,,,0.00,Wunderground v.1.15,2013-06-02 21:52:00,
2013-06-02 17:53:00,73.5,62.7,29.90,NNW,328,0.0,5.0,69,0.00,,,0.00,Wunderground v.1.15,2013-06-02 21:53:00,
2013-06-02 17:54:00,73.5,63.1,29.90,NNW,328,1.0,5.0,70,0.00,,,0.00,Wunderground v.1.15,2013-06-02 21:54:00,
2013-06-02 17:56:00,73.5,63.1,29.90,North,2,2.0,7.0,70,0.00,,,0.00,Wunderground v.1.15,2013-06-02 21:56:00,
2013-06-02 17:58:00,73.6,63.6,29.90,NNW,348,2.0,7.0,71,0.00,,,0.00,Wunderground v.1.15,2013-06-02 21:58:00,
2013-06-02 17:59:00,73.6,63.2,29.90,NW,316,1.0,9.0,70,0.00,,,0.00,Wunderground v.1.15,2013-06-02 21:59:00,
2013-06-02 18:01:00,73.5,63.5,29.90,NNW,331,3.0,3.0,71,0.00,,,0.00,Wunderground v.1.15,2013-06-02 22:01:00,
2013-06-02 18:03:00,73.5,63.1,29.90,NW,313,1.0,12.0,70,0.00,,,0.00,Wunderground v.1.15,2013-06-02 22:03:00,
2013-06-02 18:04:00,73.3,62.9,29.90,NNE,29,4.0,12.0,70,0.00,,,0.00,Wunderground v.1.15,2013-06-02 22:04:00,
2013-06-02 18:06:00,73.2,62.4,29.90,NNW,344,2.0,12.0,69,0.00,,,0.00,Wunderground v.1.15,2013-06-02 22:06:00,
2013-06-02 18:07:00,73.1,62.3,29.90,NW,313,4.0,12.0,69,0.00,,,0.00,Wunderground v.1.15,2013-06-02 22:07:00,
2013-06-02 18:08:00,73.0,62.2,29.90,North,350,4.0,12.0,69,0.00,,,0.00,Wunderground v.1.15,2013-06-02 22:08:00,
2013-06-02 18:09:00,73.0,62.2,29.90,NW,317,3.0,12.0,69,0.00,,,0.00,Wunderground v.1.15,2013-06-02 22:09:00,
2013-06-02 18:10:00,72.9,62.9,29.90,North,353,7.0,7.0,71,0.00,,,0.00,Wunderground v.1.15,2013-06-02 22:10:00,
2013-06-02 18:11:00,72.8,62.0,29.89,North,352,0.0,7.0,69,0.00,,,0.00,Wunderground v.1.15,2013-06-02 22:11:00,
2013-06-02 18:13:00,72.8,63.2,29.89,North,359,7.0,7.0,72,0.00,,,0.00,Wunderground v.1.15,2013-06-02 22:13:00,
2013-06-02 18:14:00,72.8,62.4,29.89,NNW,336,2.0,7.0,70,0.00,,,0.00,Wunderground v.1.15,2013-06-02 22:14:00,
2013-06-02 18:15:00,72.8,63.2,29.89,North,4,0.0,7.0,72,0.00,,,0.00,Wunderground v.1.15,2013-06-02 22:15:00,
2013-06-02 18:16:00,72.7,62.8,29.89,NNW,348,1.0,7.0,71,0.00,,,0.00,Wunderground v.1.15,2013-06-02 22:16:00,
2013-06-02 18:18:00,72.6,62.3,29.90,North,2,1.0,9.0,70,0.00,,,0.00,Wunderground v.1.15,2013-06-02 22:18:00,
2013-06-02 18:19:00,72.6,62.7,29.89,North,4,3.0,9.0,71,0.00,,,0.00,Wunderground v.1.15,2013-06-02 22:19:00,
2013-06-02 18:20:00,72.5,62.6,29.89,NE,39,0.0,2.0,71,0.00,,,0.00,Wunderground v.1.15,2013-06-02 22:20:00,
2013-06-02 18:22:00,72.5,62.2,29.89,NNW,331,2.0,2.0,70,0.00,,,0.00,Wunderground v.1.15,2013-06-02 22:22:00,
2013-06-02 18:23:00,72.4,62.1,29.89,NW,323,0.0,5.0,70,0.00,,,0.00,Wunderground v.1.15,2013-06-02 22:23:00,
2013-06-02 18:24:00,72.4,62.1,29.89,NE,41,1.0,5.0,70,0.00,,,0.00,Wunderground v.1.15,2013-06-02 22:24:00,
2013-06-02 18:25:00,72.4,62.5,29.89,NE,40,0.0,5.0,71,0.00,,,0.00,Wunderground v.1.15,2013-06-02 22:25:00,
2013-06-02 18:27:00,72.3,62.0,29.89,NW,323,5.0,6.0,70,0.00,,,0.00,Wunderground v.1.15,2013-06-02 22:27:00,
2013-06-02 18:28:00,72.2,61.9,29.89,NW,323,0.0,7.0,70,0.00,,,0.00,Wunderground v.1.15,2013-06-02 22:28:00,
2013-06-02 18:29:00,72.2,61.9,29.89,NW,318,3.0,7.0,70,0.00,,,0.00,Wunderground v.1.15,2013-06-02 22:29:00,
2013-06-02 18:30:00,72.2,61.9,29.89,WNW,303,5.0,7.0,70,0.00,,,0.00,Wunderground v.1.15,2013-06-02 22:30:00,
2013-06-02 18:32:00,72.0,61.7,29.89,NNW,347,5.0,7.0,70,0.00,,,0.00,Wunderground v.1.15,2013-06-02 22:32:00,
2013-06-02 18:34:00,71.9,61.6,29.89,North,5,1.0,7.0,70,0.00,,,0.00,Wunderground v.1.15,2013-06-02 22:34:00,
2013-06-02 18:35:00,71.8,61.5,29.89,North,7,0.0,7.0,70,0.00,,,0.00,Wunderground v.1.15,2013-06-02 22:35:00,
2013-06-02 18:36:00,71.8,61.9,29.89,NNW,338,0.0,7.0,71,0.00,,,0.00,Wunderground v.1.15,2013-06-02 22:36:00,
2013-06-02 18:37:00,71.7,61.8,29.89,SW,232,1.0,7.0,71,0.00,,,0.00,Wunderground v.1.15,2013-06-02 22:37:00,
2013-06-02 18:39:00,71.7,61.4,29.89,WNW,295,1.0,7.0,70,0.00,,,0.00,Wunderground v.1.15,2013-06-02 22:39:00,
2013-06-02 18:40:00,71.6,61.7,29.89,WNW,295,2.0,3.0,71,0.00,,,0.00,Wunderground v.1.15,2013-06-02 22:40:00,
2013-06-02 18:41:00,71.6,61.3,29.89,WNW,297,0.0,3.0,70,0.00,,,0.00,Wunderground v.1.15,2013-06-02 22:41:00,
2013-06-02 18:43:00,71.6,62.1,29.89,WNW,297,0.0,3.0,72,0.00,,,0.00,Wunderground v.1.15,2013-06-02 22:43:00,
2013-06-02 18:44:00,71.6,62.1,29.89,NNW,340,0.0,5.0,72,0.00,,,0.00,Wunderground v.1.15,2013-06-02 22:44:00,
2013-06-02 18:45:00,71.5,62.0,29.89,NNW,341,0.0,5.0,72,0.00,,,0.00,Wunderground v.1.15,2013-06-02 22:45:00,
2013-06-02 18:47:00,71.5,62.0,29.89,NW,315,2.0,5.0,72,0.00,,,0.00,Wunderground v.1.15,2013-06-02 22:47:00,
2013-06-02 18:48:00,71.5,61.6,29.89,NW,312,0.0,5.0,71,0.00,,,0.00,Wunderground v.1.15,2013-06-02 22:48:00,
2013-06-02 18:49:00,71.5,62.4,29.89,North,355,3.0,6.0,73,0.00,,,0.00,Wunderground v.1.15,2013-06-02 22:49:00,
2013-06-02 18:51:00,71.4,61.5,29.89,NNW,340,0.0,4.0,71,0.00,,,0.00,Wunderground v.1.15,2013-06-02 22:51:00,
2013-06-02 18:52:00,71.4,61.9,29.89,NNW,336,2.0,4.0,72,0.00,,,0.00,Wunderground v.1.15,2013-06-02 22:52:00,
2013-06-02 18:53:00,71.4,61.9,29.89,West,276,5.0,5.0,72,0.00,,,0.00,Wunderground v.1.15,2013-06-02 22:53:00,
2013-06-02 18:54:00,71.3,61.8,29.89,West,277,1.0,7.0,72,0.00,,,0.00,Wunderground v.1.15,2013-06-02 22:54:00,
2013-06-02 18:56:00,71.2,61.3,29.89,NW,318,3.0,7.0,71,0.00,,,0.00,Wunderground v.1.15,2013-06-02 22:56:00,
2013-06-02 18:57:00,71.2,61.3,29.89,NW,313,1.0,7.0,71,0.00,,,0.00,Wunderground v.1.15,2013-06-02 22:57:00,
2013-06-02 18:58:00,71.2,61.3,29.89,NW,315,5.0,7.0,71,0.00,,,0.00,Wunderground v.1.15,2013-06-02 22:58:00,
2013-06-02 19:00:00,71.1,61.2,29.89,NNW,337,4.0,4.0,71,0.00,,,0.00,Wunderground v.1.15,2013-06-02 23:00:00,
2013-06-02 19:02:00,71.0,61.5,29.89,North,9,4.0,6.0,72,0.00,,,0.00,Wunderground v.1.15,2013-06-02 23:02:00,
2013-06-02 19:04:00,70.9,61.4,29.89,NNW,339,3.0,6.0,72,0.00,,,0.00,Wunderground v.1.15,2013-06-02 23:04:00,
2013-06-02 19:05:00,70.9,61.4,29.89,North,357,4.0,6.0,72,0.00,,,0.00,Wunderground v.1.15,2013-06-02 23:05:00,
2013-06-02 19:07:00,70.9,61.4,29.89,North,351,3.0,6.0,72,0.00,,,0.00,Wunderground v.1.15,2013-06-02 23:07:00,
2013-06-02 19:09:00,70.8,61.3,29.89,NE,34,5.0,6.0,72,0.00,,,0.00,Wunderground v.1.15,2013-06-02 23:09:00,
2013-06-02 19:10:00,70.8,61.3,29.89,North,350,8.0,8.0,72,0.00,,,0.00,Wunderground v.1.15,2013-06-02 23:10:00,
2013-06-02 19:12:00,70.8,61.7,29.89,NNE,13,0.0,9.0,73,0.00,,,0.00,Wunderground v.1.15,2013-06-02 23:12:00,
2013-06-02 19:13:00,70.8,62.1,29.89,NNE,13,0.0,9.0,74,0.00,,,0.00,Wunderground v.1.15,2013-06-02 23:13:00,
2013-06-02 19:15:00,70.7,61.6,29.89,North,355,2.0,9.0,73,0.00,,,0.00,Wunderground v.1.15,2013-06-02 23:15:00,
2013-06-02 19:17:00,70.7,62.0,29.89,North,354,4.0,9.0,74,0.00,,,0.00,Wunderground v.1.15,2013-06-02 23:17:00,
2013-06-02 19:18:00,70.7,62.0,29.89,North,354,3.0,9.0,74,0.00,,,0.00,Wunderground v.1.15,2013-06-02 23:18:00,
2013-06-02 19:20:00,70.6,62.3,29.89,North,355,0.0,3.0,75,0.00,,,0.00,Wunderground v.1.15,2013-06-02 23:20:00,
2013-06-02 19:22:00,70.6,62.3,29.89,North,355,0.0,3.0,75,0.00,,,0.00,Wunderground v.1.15,2013-06-02 23:22:00,
2013-06-02 19:23:00,70.6,62.3,29.89,North,355,0.0,3.0,75,0.00,,,0.00,Wunderground v.1.15,2013-06-02 23:23:00,
2013-06-02 19:25:00,70.5,61.8,29.89,NNW,338,0.0,5.0,74,0.00,,,0.00,Wunderground v.1.15,2013-06-02 23:25:00,
2013-06-02 19:26:00,70.5,61.8,29.89,NNW,337,0.0,5.0,74,0.00,,,0.00,Wunderground v.1.15,2013-06-02 23:26:00,
2013-06-02 19:28:00,70.4,61.7,29.89,NW,309,2.0,5.0,74,0.00,,,0.00,Wunderground v.1.15,2013-06-02 23:28:00,
2013-06-02 19:30:00,70.3,61.6,29.89,NW,311,0.0,6.0,74,0.00,,,0.00,Wunderground v.1.15,2013-06-02 23:30:00,
2013-06-02 19:31:00,70.3,61.6,29.89,NW,313,0.0,6.0,74,0.00,,,0.00,Wunderground v.1.15,2013-06-02 23:31:00,
2013-06-02 19:33:00,70.2,61.5,29.89,North,353,3.0,7.0,74,0.00,,,0.00,Wunderground v.1.15,2013-06-02 23:33:00,
2013-06-02 19:35:00,70.1,61.8,29.89,NNW,337,0.0,7.0,75,0.00,,,0.00,Wunderground v.1.15,2013-06-02 23:35:00,
2013-06-02 19:36:00,70.1,61.8,29.89,NNW,338,1.0,7.0,75,0.00,,,0.00,Wunderground v.1.15,2013-06-02 23:36:00,
2013-06-02 19:38:00,70.0,61.3,29.89,NNW,332,0.0,7.0,74,0.00,,,0.00,Wunderground v.1.15,2013-06-02 23:38:00,
2013-06-02 19:39:00,70.0,61.3,29.89,North,349,4.0,7.0,74,0.00,,,0.00,Wunderground v.1.15,2013-06-02 23:39:00,
2013-06-02 19:41:00,70.0,61.7,29.89,NNW,344,4.0,4.0,75,0.00,,,0.00,Wunderground v.1.15,2013-06-02 23:41:00,
2013-06-02 19:43:00,70.0,61.7,29.89,NNW,337,0.0,6.0,75,0.00,,,0.00,Wunderground v.1.15,2013-06-02 23:43:00,
2013-06-02 19:44:00,70.0,61.7,29.89,NNW,338,0.0,6.0,75,0.00,,,0.00,Wunderground v.1.15,2013-06-02 23:44:00,
2013-06-02 19:46:00,70.0,62.1,29.89,NNW,347,2.0,6.0,76,0.00,,,0.00,Wunderground v.1.15,2013-06-02 23:46:00,
2013-06-02 19:48:00,70.0,61.7,29.89,North,5,6.0,10.0,75,0.00,,,0.00,Wunderground v.1.15,2013-06-02 23:48:00,
2013-06-02 19:49:00,70.0,61.7,29.89,North,354,4.0,10.0,75,0.00,,,0.00,Wunderground v.1.15,2013-06-02 23:49:00,
2013-06-02 19:51:00,70.0,61.7,29.89,North,353,0.0,1.0,75,0.00,,,0.00,Wunderground v.1.15,2013-06-02 23:51:00,
2013-06-02 19:52:00,70.0,61.7,29.89,North,353,0.0,1.0,75,0.00,,,0.00,Wunderground v.1.15,2013-06-02 23:52:00,
2013-06-02 19:53:00,70.0,62.1,29.89,North,353,0.0,1.0,76,0.00,,,0.00,Wunderground v.1.15,2013-06-02 23:53:00,
2013-06-02 19:54:00,70.0,62.1,29.89,North,353,0.0,1.0,76,0.00,,,0.00,Wunderground v.1.15,2013-06-02 23:54:00,
2013-06-02 19:56:00,70.0,62.1,29.89,North,353,0.0,1.0,76,0.00,,,0.00,Wunderground v.1.15,2013-06-02 23:56:00,
2013-06-02 19:57:00,69.9,62.0,29.89,North,352,0.0,1.0,76,0.00,,,0.00,Wunderground v.1.15,2013-06-02 23:57:00,
2013-06-02 19:58:00,69.9,62.0,29.89,NNW,344,4.0,4.0,76,0.00,,,0.00,Wunderground v.1.15,2013-06-02 23:58:00,
2013-06-02 19:59:00,69.9,62.0,29.89,NNW,348,0.0,4.0,76,0.00,,,0.00,Wunderground v.1.15,2013-06-02 23:59:00,
2013-06-02 20:01:00,69.8,61.9,29.89,NNW,347,0.0,3.0,76,0.00,,,0.00,Wunderground v.1.15,2013-06-03 00:01:00,
2013-06-02 20:02:00,69.8,61.9,29.89,NNW,346,0.0,3.0,76,0.00,,,0.00,Wunderground v.1.15,2013-06-03 00:02:00,
2013-06-02 20:04:00,69.8,61.9,29.89,NNW,347,0.0,3.0,76,0.00,,,0.00,Wunderground v.1.15,2013-06-03 00:04:00,
2013-06-02 20:05:00,69.8,61.9,29.89,NNW,346,0.0,3.0,76,0.00,,,0.00,Wunderground v.1.15,2013-06-03 00:05:00,
2013-06-02 20:06:00,69.7,61.8,29.89,NNW,344,0.0,4.0,76,0.00,,,0.00,Wunderground v.1.15,2013-06-03 00:06:00,
2013-06-02 20:07:00,69.7,61.8,29.89,NNW,344,0.0,4.0,76,0.00,,,0.00,Wunderground v.1.15,2013-06-03 00:07:00,
2013-06-02 20:09:00,69.6,61.7,29.89,NNW,344,0.0,4.0,76,0.00,,,0.00,Wunderground v.1.15,2013-06-03 00:09:00,
2013-06-02 20:10:00,69.6,61.7,29.89,NNW,344,0.0,0.0,76,0.00,,,0.00,Wunderground v.1.15,2013-06-03 00:10:00,
2013-06-02 20:11:00,69.6,61.7,29.89,NNW,344,0.0,0.0,76,0.00,,,0.00,Wunderground v.1.15,2013-06-03 00:11:00,
2013-06-02 20:12:00,69.5,62.0,29.89,NNW,344,0.0,0.0,77,0.00,,,0.00,Wunderground v.1.15,2013-06-03 00:12:00,
2013-06-02 20:14:00,69.5,62.0,29.89,NNW,344,0.0,0.0,77,0.00,,,0.00,Wunderground v.1.15,2013-06-03 00:14:00,
2013-06-02 20:15:00,69.5,62.0,29.89,NNW,345,3.0,3.0,77,0.00,,,0.00,Wunderground v.1.15,2013-06-03 00:15:00,
2013-06-02 20:16:00,69.5,62.0,29.89,NNW,338,0.0,3.0,77,0.00,,,0.00,Wunderground v.1.15,2013-06-03 00:16:00,
2013-06-02 20:17:00,69.4,61.9,29.89,NNW,338,0.0,3.0,77,0.00,,,0.00,Wunderground v.1.15,2013-06-03 00:17:00,
2013-06-02 20:19:00,69.3,61.8,29.89,NNW,336,0.0,3.0,77,0.00,,,0.00,Wunderground v.1.15,2013-06-03 00:19:00,
2013-06-02 20:20:00,69.3,61.8,29.89,NNW,336,0.0,0.0,77,0.00,,,0.00,Wunderground v.1.15,2013-06-03 00:20:00,
2013-06-02 20:21:00,69.2,61.7,29.89,NNW,336,0.0,1.0,77,0.00,,,0.00,Wunderground v.1.15,2013-06-03 00:21:00,
2013-06-02 20:22:00,69.2,61.7,29.89,NNW,336,0.0,1.0,77,0.00,,,0.00,Wunderground v.1.15,2013-06-03 00:22:00,
2013-06-02 20:23:00,69.2,62.0,29.89,NNW,336,0.0,1.0,78,0.00,,,0.00,Wunderground v.1.15,2013-06-03 00:23:00,
2013-06-02 20:24:00,69.1,61.9,29.89,NNW,336,1.0,3.0,78,0.00,,,0.00,Wunderground v.1.15,2013-06-03 00:24:00,
2013-06-02 20:26:00,69.0,61.9,29.89,NNW,336,0.0,3.0,78,0.00,,,0.00,Wunderground v.1.15,2013-06-03 00:26:00,
2013-06-02 20:28:00,68.9,61.8,29.89,NNW,336,0.0,3.0,78,0.00,,,0.00,Wunderground v.1.15,2013-06-03 00:28:00,
2013-06-02 20:30:00,68.8,61.7,29.90,NNW,336,0.0,0.0,78,0.00,,,0.00,Wunderground v.1.15,2013-06-03 00:30:00,
2013-06-02 20:31:00,68.7,61.6,29.90,NNW,336,0.0,0.0,78,0.00,,,0.00,Wunderground v.1.15,2013-06-03 00:31:00,
2013-06-02 20:33:00,68.6,61.5,29.90,NNW,336,0.0,0.0,78,0.00,,,0.00,Wunderground v.1.15,2013-06-03 00:33:00,
2013-06-02 20:35:00,68.5,61.4,29.90,NNW,336,0.0,1.0,78,0.00,,,0.00,Wunderground v.1.15,2013-06-03 00:35:00,
2013-06-02 20:37:00,68.4,61.3,29.90,NNW,336,0.0,1.0,78,0.00,,,0.00,Wunderground v.1.15,2013-06-03 00:37:00,
2013-06-02 20:38:00,68.3,61.5,29.90,NNW,336,0.0,1.0,79,0.00,,,0.00,Wunderground v.1.15,2013-06-03 00:38:00,
2013-06-02 20:41:00,68.1,61.3,29.90,NNW,336,0.0,0.0,79,0.00,,,0.00,Wunderground v.1.15,2013-06-03 00:41:00,
2013-06-02 20:42:00,68.1,61.3,29.90,NNW,336,0.0,0.0,79,0.00,,,0.00,Wunderground v.1.15,2013-06-03 00:42:00,
2013-06-02 20:43:00,68.0,61.2,29.90,NNW,336,0.0,0.0,79,0.00,,,0.00,Wunderground v.1.15,2013-06-03 00:43:00,
2013-06-02 20:46:00,67.8,61.4,29.90,NNW,336,0.0,0.0,80,0.00,,,0.00,Wunderground v.1.15,2013-06-03 00:46:00,
2013-06-02 20:47:00,67.8,61.4,29.90,NNW,336,0.0,0.0,80,0.00,,,0.00,Wunderground v.1.15,2013-06-03 00:47:00,
2013-06-02 20:49:00,67.7,61.3,29.90,NNW,336,0.0,0.0,80,0.00,,,0.00,Wunderground v.1.15,2013-06-03 00:49:00,
2013-06-02 20:52:00,67.5,61.1,29.90,NNW,348,0.0,0.0,80,0.00,,,0.00,Wunderground v.1.15,2013-06-03 00:52:00,
2013-06-02 20:54:00,67.4,61.4,29.90,NNW,348,0.0,0.0,81,0.00,,,0.00,Wunderground v.1.15,2013-06-03 00:54:00,
2013-06-02 20:55:00,67.3,61.3,29.90,NNE,33,0.0,0.0,81,0.00,,,0.00,Wunderground v.1.15,2013-06-03 00:55:00,
2013-06-02 20:57:00,67.2,61.2,29.90,NNE,32,0.0,0.0,81,0.00,,,0.00,Wunderground v.1.15,2013-06-03 00:57:00,
2013-06-02 20:59:00,67.1,61.4,29.90,NNE,33,0.0,0.0,82,0.00,,,0.00,Wunderground v.1.15,2013-06-03 00:59:00,
2013-06-02 21:00:00,67.1,61.8,29.90,NNE,32,0.0,0.0,83,0.00,,,0.00,Wunderground v.1.15,2013-06-03 01:00:00,
2013-06-02 21:02:00,67.0,61.7,29.90,NNE,33,0.0,0.0,83,0.00,,,0.00,Wunderground v.1.15,2013-06-03 01:02:00,
2013-06-02 21:03:00,66.9,61.2,29.90,NNE,32,0.0,0.0,82,0.00,,,0.00,Wunderground v.1.15,2013-06-03 01:03:00,
2013-06-02 21:05:00,66.8,61.5,29.90,NNE,32,0.0,0.0,83,0.00,,,0.00,Wunderground v.1.15,2013-06-03 01:05:00,
2013-06-02 21:07:00,66.7,61.4,29.90,NNE,32,1.0,3.0,83,0.00,,,0.00,Wunderground v.1.15,2013-06-03 01:07:00,
2013-06-02 21:08:00,66.6,61.3,29.90,NNE,32,0.0,3.0,83,0.00,,,0.00,Wunderground v.1.15,2013-06-03 01:08:00,
2013-06-02 21:10:00,66.5,61.2,29.90,NNE,32,0.0,0.0,83,0.00,,,0.00,Wunderground v.1.15,2013-06-03 01:10:00,
2013-06-02 21:12:00,66.4,61.1,29.90,NNE,31,0.0,0.0,83,0.00,,,0.00,Wunderground v.1.15,2013-06-03 01:12:00,
2013-06-02 21:13:00,66.4,61.4,29.90,NNE,20,2.0,3.0,84,0.00,,,0.00,Wunderground v.1.15,2013-06-03 01:13:00,
2013-06-02 21:16:00,66.2,61.2,29.90,North,350,0.0,5.0,84,0.00,,,0.00,Wunderground v.1.15,2013-06-03 01:16:00,
2013-06-02 21:17:00,66.1,61.1,29.91,North,350,0.0,5.0,84,0.00,,,0.00,Wunderground v.1.15,2013-06-03 01:17:00,
2013-06-02 21:18:00,66.1,61.1,29.90,North,350,0.0,5.0,84,0.00,,,0.00,Wunderground v.1.15,2013-06-03 01:18:00,
2013-06-02 21:19:00,66.1,61.1,29.91,North,350,0.0,5.0,84,0.00,,,0.00,Wunderground v.1.15,2013-06-03 01:19:00,
2013-06-02 21:21:00,66.0,61.0,29.91,North,350,1.0,4.0,84,0.00,,,0.00,Wunderground v.1.15,2013-06-03 01:21:00,
2013-06-02 21:22:00,65.9,60.9,29.91,NNW,346,0.0,4.0,84,0.00,,,0.00,Wunderground v.1.15,2013-06-03 01:22:00,
2013-06-02 21:24:00,65.9,60.9,29.91,NNW,346,0.0,4.0,84,0.00,,,0.00,Wunderground v.1.15,2013-06-03 01:24:00,
2013-06-02 21:26:00,65.8,61.2,29.91,NNW,346,0.0,4.0,85,0.00,,,0.00,Wunderground v.1.15,2013-06-03 01:26:00,
2013-06-02 21:27:00,65.8,61.2,29.91,NNW,346,0.0,4.0,85,0.00,,,0.00,Wunderground v.1.15,2013-06-03 01:27:00,
2013-06-02 21:29:00,65.7,61.1,29.91,NNW,346,0.0,4.0,85,0.00,,,0.00,Wunderground v.1.15,2013-06-03 01:29:00,
2013-06-02 21:31:00,65.6,61.0,29.91,NNW,346,0.0,1.0,85,0.00,,,0.00,Wunderground v.1.15,2013-06-03 01:31:00,
2013-06-02 21:32:00,65.6,61.0,29.91,NNW,346,0.0,1.0,85,0.00,,,0.00,Wunderground v.1.15,2013-06-03 01:32:00,
2013-06-02 21:33:00,65.6,61.0,29.91,NNW,346,0.0,1.0,85,0.00,,,0.00,Wunderground v.1.15,2013-06-03 01:33:00,
2013-06-02 21:34:00,65.6,61.0,29.91,NNW,346,0.0,1.0,85,0.00,,,0.00,Wunderground v.1.15,2013-06-03 01:34:00,
2013-06-02 21:36:00,65.4,60.8,29.91,NNW,346,0.0,2.0,85,0.00,,,0.00,Wunderground v.1.15,2013-06-03 01:36:00,
2013-06-02 21:37:00,65.4,60.8,29.91,NNW,346,0.0,2.0,85,0.00,,,0.00,Wunderground v.1.15,2013-06-03 01:37:00,
2013-06-02 21:38:00,65.4,60.8,29.91,NNW,346,0.0,2.0,85,0.00,,,0.00,Wunderground v.1.15,2013-06-03 01:38:00,
2013-06-02 21:39:00,65.3,60.7,29.91,NNW,346,0.0,2.0,85,0.00,,,0.00,Wunderground v.1.15,2013-06-03 01:39:00,
2013-06-02 21:41:00,65.3,60.7,29.91,NNW,346,0.0,0.0,85,0.00,,,0.00,Wunderground v.1.15,2013-06-03 01:41:00,
2013-06-02 21:42:00,65.2,60.6,29.91,NNW,346,0.0,0.0,85,0.00,,,0.00,Wunderground v.1.15,2013-06-03 01:42:00,
2013-06-02 21:43:00,65.2,60.6,29.91,NNW,346,0.0,0.0,85,0.00,,,0.00,Wunderground v.1.15,2013-06-03 01:43:00,
2013-06-02 21:44:00,65.1,60.5,29.91,NNW,346,0.0,1.0,85,0.00,,,0.00,Wunderground v.1.15,2013-06-03 01:44:00,
2013-06-02 21:47:00,65.0,60.4,29.91,NNW,346,0.0,1.0,85,0.00,,,0.00,Wunderground v.1.15,2013-06-03 01:47:00,
2013-06-02 21:48:00,64.9,60.6,29.91,NNW,346,0.0,1.0,86,0.00,,,0.00,Wunderground v.1.15,2013-06-03 01:48:00,
2013-06-02 21:49:00,64.9,60.6,29.91,NNW,346,0.0,1.0,86,0.00,,,0.00,Wunderground v.1.15,2013-06-03 01:49:00,
2013-06-02 21:50:00,64.9,60.6,29.91,NNW,346,0.0,0.0,86,0.00,,,0.00,Wunderground v.1.15,2013-06-03 01:50:00,
2013-06-02 21:52:00,64.8,60.8,29.91,NNW,346,0.0,0.0,87,0.00,,,0.00,Wunderground v.1.15,2013-06-03 01:52:00,
2013-06-02 21:53:00,64.8,60.5,29.91,NNW,346,0.0,0.0,86,0.00,,,0.00,Wunderground v.1.15,2013-06-03 01:53:00,
2013-06-02 21:55:00,64.7,60.7,29.91,NNW,346,0.0,0.0,87,0.00,,,0.00,Wunderground v.1.15,2013-06-03 01:55:00,
2013-06-02 21:57:00,64.6,60.6,29.91,NNW,346,0.0,1.0,87,0.00,,,0.00,Wunderground v.1.15,2013-06-03 01:57:00,
2013-06-02 21:58:00,64.6,60.6,29.91,NNW,346,0.0,1.0,87,0.00,,,0.00,Wunderground v.1.15,2013-06-03 01:58:00,
2013-06-02 22:00:00,64.5,60.5,29.91,NNW,346,0.0,1.0,87,0.00,,,0.00,Wunderground v.1.15,2013-06-03 02:00:00,
2013-06-02 22:02:00,64.4,60.4,29.91,NNW,346,1.0,1.0,87,0.00,,,0.00,Wunderground v.1.15,2013-06-03 02:02:00,
2013-06-02 22:03:00,64.3,60.3,29.92,NNW,346,0.0,3.0,87,0.00,,,0.00,Wunderground v.1.15,2013-06-03 02:03:00,
2013-06-02 22:04:00,64.4,60.4,29.92,NNW,346,0.0,3.0,87,0.00,,,0.00,Wunderground v.1.15,2013-06-03 02:04:00,
2013-06-02 22:06:00,64.3,60.7,29.92,NNW,346,0.0,3.0,88,0.00,,,0.00,Wunderground v.1.15,2013-06-03 02:06:00,
2013-06-02 22:07:00,64.3,60.7,29.92,NNW,346,0.0,3.0,88,0.00,,,0.00,Wunderground v.1.15,2013-06-03 02:07:00,
2013-06-02 22:08:00,64.2,60.6,29.92,NNW,346,0.0,3.0,88,0.00,,,0.00,Wunderground v.1.15,2013-06-03 02:08:00,
2013-06-02 22:09:00,64.2,60.6,29.92,NNW,346,0.0,3.0,88,0.00,,,0.00,Wunderground v.1.15,2013-06-03 02:09:00,
2013-06-02 22:11:00,64.1,60.5,29.92,NNW,346,0.0,0.0,88,0.00,,,0.00,Wunderground v.1.15,2013-06-03 02:11:00,
2013-06-02 22:12:00,64.1,60.5,29.92,NNW,346,1.0,1.0,88,0.00,,,0.00,Wunderground v.1.15,2013-06-03 02:12:00,
2013-06-02 22:13:00,64.1,60.5,29.92,NNW,346,0.0,2.0,88,0.00,,,0.00,Wunderground v.1.15,2013-06-03 02:13:00,
2013-06-02 22:14:00,64.1,60.8,29.92,NNW,346,0.0,2.0,89,0.00,,,0.00,Wunderground v.1.15,2013-06-03 02:14:00,
2013-06-02 22:16:00,64.1,60.8,29.92,NNW,346,0.0,2.0,89,0.00,,,0.00,Wunderground v.1.15,2013-06-03 02:16:00,
2013-06-02 22:17:00,64.1,60.8,29.92,NNW,346,0.0,2.0,89,0.00,,,0.00,Wunderground v.1.15,2013-06-03 02:17:00,
2013-06-02 22:18:00,64.1,60.8,29.92,NNW,346,0.0,2.0,89,0.00,,,0.00,Wunderground v.1.15,2013-06-03 02:18:00,
2013-06-02 22:19:00,64.1,60.8,29.92,NNW,346,0.0,2.0,89,0.00,,,0.00,Wunderground v.1.15,2013-06-03 02:19:00,
2013-06-02 22:21:00,64.1,60.5,29.92,NNW,343,2.0,4.0,88,0.00,,,0.00,Wunderground v.1.15,2013-06-03 02:21:00,
2013-06-02 22:22:00,64.2,60.6,29.92,NNW,343,0.0,4.0,88,0.00,,,0.00,Wunderground v.1.15,2013-06-03 02:22:00,
2013-06-02 22:23:00,64.2,60.6,29.92,North,355,5.0,5.0,88,0.00,,,0.00,Wunderground v.1.15,2013-06-03 02:23:00,
2013-06-02 22:24:00,64.2,60.6,29.92,North,357,3.0,5.0,88,0.00,,,0.00,Wunderground v.1.15,2013-06-03 02:24:00,
2013-06-02 22:25:00,64.2,60.6,29.92,North,355,0.0,5.0,88,0.00,,,0.00,Wunderground v.1.15,2013-06-03 02:25:00,
2013-06-02 22:27:00,64.3,60.7,29.92,North,1,4.0,5.0,88,0.00,,,0.00,Wunderground v.1.15,2013-06-03 02:27:00,
2013-06-02 22:28:00,64.3,60.7,29.92,North,360,2.0,5.0,88,0.00,,,0.00,Wunderground v.1.15,2013-06-03 02:28:00,
2013-06-02 22:29:00,64.3,60.7,29.92,North,1,0.0,5.0,88,0.00,,,0.00,Wunderground v.1.15,2013-06-03 02:29:00,
2013-06-02 22:31:00,64.3,60.3,29.92,North,360,0.0,2.0,87,0.00,,,0.00,Wunderground v.1.15,2013-06-03 02:31:00,
2013-06-02 22:33:00,64.4,60.4,29.92,North,360,0.0,3.0,87,0.00,,,0.00,Wunderground v.1.15,2013-06-03 02:33:00,
2013-06-02 22:34:00,64.4,60.4,29.93,North,360,0.0,3.0,87,0.00,,,0.00,Wunderground v.1.15,2013-06-03 02:34:00,
2013-06-02 22:36:00,64.4,60.4,29.92,North,360,1.0,3.0,87,0.00,,,0.00,Wunderground v.1.15,2013-06-03 02:36:00,
2013-06-02 22:38:00,64.4,60.4,29.93,North,1,1.0,3.0,87,0.00,,,0.00,Wunderground v.1.15,2013-06-03 02:38:00,
2013-06-02 22:39:00,64.5,60.2,29.93,North,1,0.0,3.0,86,0.00,,,0.00,Wunderground v.1.15,2013-06-03 02:39:00,
2013-06-02 22:41:00,64.5,60.2,29.93,North,1,0.0,0.0,86,0.00,,,0.00,Wunderground v.1.15,2013-06-03 02:41:00,
2013-06-02 22:43:00,64.5,60.2,29.93,North,1,0.0,0.0,86,0.00,,,0.00,Wunderground v.1.15,2013-06-03 02:43:00,
2013-06-02 22:44:00,64.5,60.2,29.93,North,2,0.0,0.0,86,0.00,,,0.00,Wunderground v.1.15,2013-06-03 02:44:00,
2013-06-02 22:45:00,64.5,60.2,29.93,North,2,0.0,0.0,86,0.00,,,0.00,Wunderground v.1.15,2013-06-03 02:45:00,
2013-06-02 22:46:00,64.5,60.2,29.93,North,2,0.0,0.0,86,0.00,,,0.00,Wunderground v.1.15,2013-06-03 02:46:00,
2013-06-02 22:48:00,64.5,60.2,29.93,North,2,0.0,1.0,86,0.00,,,0.00,Wunderground v.1.15,2013-06-03 02:48:00,
2013-06-02 22:50:00,64.5,60.2,29.93,North,1,0.0,0.0,86,0.00,,,0.00,Wunderground v.1.15,2013-06-03 02:50:00,
2013-06-02 22:51:00,64.4,60.1,29.93,North,2,0.0,0.0,86,0.00,,,0.00,Wunderground v.1.15,2013-06-03 02:51:00,
2013-06-02 22:53:00,64.4,60.4,29.93,North,1,0.0,0.0,87,0.00,,,0.00,Wunderground v.1.15,2013-06-03 02:53:00,
2013-06-02 22:54:00,64.4,60.4,29.93,North,2,0.0,0.0,87,0.00,,,0.00,Wunderground v.1.15,2013-06-03 02:54:00,
2013-06-02 22:55:00,64.4,60.4,29.93,North,2,0.0,0.0,87,0.00,,,0.00,Wunderground v.1.15,2013-06-03 02:55:00,
2013-06-02 22:57:00,64.4,60.4,29.93,North,2,0.0,0.0,87,0.00,,,0.00,Wunderground v.1.15,2013-06-03 02:57:00,
2013-06-02 22:58:00,64.3,60.3,29.93,North,2,0.0,0.0,87,0.00,,,0.00,Wunderground v.1.15,2013-06-03 02:58:00,
2013-06-02 22:59:00,64.3,60.3,29.93,North,2,0.0,0.0,87,0.00,,,0.00,Wunderground v.1.15,2013-06-03 02:59:00,
2013-06-02 23:00:00,64.3,60.3,29.93,North,1,0.0,0.0,87,0.00,,,0.00,Wunderground v.1.15,2013-06-03 03:00:00,
2013-06-02 23:02:00,64.3,60.3,29.93,North,2,0.0,1.0,87,0.00,,,0.00,Wunderground v.1.15,2013-06-03 03:02:00,
2013-06-02 23:04:00,64.2,60.2,29.93,North,1,0.0,1.0,87,0.00,,,0.00,Wunderground v.1.15,2013-06-03 03:04:00,
2013-06-02 23:06:00,64.1,60.2,29.93,North,1,0.0,1.0,87,0.00,,,0.00,Wunderground v.1.15,2013-06-03 03:06:00,
2013-06-02 23:07:00,64.1,60.2,29.94,North,1,0.0,1.0,87,0.00,,,0.00,Wunderground v.1.15,2013-06-03 03:07:00,
2013-06-02 23:09:00,64.0,60.1,29.93,North,2,0.0,1.0,87,0.00,,,0.00,Wunderground v.1.15,2013-06-03 03:09:00,
2013-06-02 23:10:00,64.0,60.1,29.93,North,2,0.0,0.0,87,0.00,,,0.00,Wunderground v.1.15,2013-06-03 03:10:00,
2013-06-02 23:11:00,64.0,60.1,29.93,North,1,0.0,0.0,87,0.00,,,0.00,Wunderground v.1.15,2013-06-03 03:11:00,
2013-06-02 23:12:00,63.9,60.0,29.94,North,1,2.0,2.0,87,0.00,,,0.00,Wunderground v.1.15,2013-06-03 03:12:00,
2013-06-02 23:14:00,63.9,60.0,29.94,North,359,0.0,3.0,87,0.00,,,0.00,Wunderground v.1.15,2013-06-03 03:14:00,
2013-06-02 23:15:00,63.9,60.0,29.94,North,359,0.0,3.0,87,0.00,,,0.00,Wunderground v.1.15,2013-06-03 03:15:00,
2013-06-02 23:17:00,63.8,60.2,29.94,North,359,0.0,3.0,88,0.00,,,0.00,Wunderground v.1.15,2013-06-03 03:17:00,
2013-06-02 23:18:00,63.8,60.2,29.94,North,359,0.0,3.0,88,0.00,,,0.00,Wunderground v.1.15,2013-06-03 03:18:00,
2013-06-02 23:20:00,63.7,60.1,29.94,North,359,0.0,0.0,88,0.00,,,0.00,Wunderground v.1.15,2013-06-03 03:20:00,
2013-06-02 23:23:00,63.6,60.0,29.94,North,359,0.0,0.0,88,0.00,,,0.00,Wunderground v.1.15,2013-06-03 03:23:00,
2013-06-02 23:25:00,63.6,60.0,29.94,North,359,0.0,0.0,88,0.00,,,0.00,Wunderground v.1.15,2013-06-03 03:25:00,
2013-06-02 23:28:00,63.5,59.9,29.94,North,359,0.0,0.0,88,0.00,,,0.00,Wunderground v.1.15,2013-06-03 03:28:00,
2013-06-02 23:30:00,63.4,59.8,29.94,North,359,0.0,0.0,88,0.00,,,0.00,Wunderground v.1.15,2013-06-03 03:30:00,
2013-06-02 23:31:00,63.4,59.8,29.94,North,359,0.0,0.0,88,0.00,,,0.00,Wunderground v.1.15,2013-06-03 03:31:00,
2013-06-02 23:33:00,63.3,59.7,29.94,North,359,0.0,0.0,88,0.00,,,0.00,Wunderground v.1.15,2013-06-03 03:33:00,
2013-06-02 23:36:00,63.3,60.0,29.94,North,359,0.0,0.0,89,0.00,,,0.00,Wunderground v.1.15,2013-06-03 03:36:00,
2013-06-02 23:37:00,63.2,59.9,29.94,North,359,0.0,0.0,89,0.00,,,0.00,Wunderground v.1.15,2013-06-03 03:37:00,
2013-06-02 23:38:00,63.2,59.9,29.94,North,359,0.0,0.0,89,0.00,,,0.00,Wunderground v.1.15,2013-06-03 03:38:00,
2013-06-02 23:41:00,63.1,59.8,29.94,North,359,0.0,0.0,89,0.00,,,0.00,Wunderground v.1.15,2013-06-03 03:41:00,
2013-06-02 23:42:00,63.1,59.8,29.94,North,359,0.0,0.0,89,0.00,,,0.00,Wunderground v.1.15,2013-06-03 03:42:00,
2013-06-02 23:43:00,63.1,59.8,29.94,North,359,0.0,0.0,89,0.00,,,0.00,Wunderground v.1.15,2013-06-03 03:43:00,
2013-06-02 23:44:00,63.1,59.8,29.94,North,359,0.0,0.0,89,0.00,,,0.00,Wunderground v.1.15,2013-06-03 03:44:00,
2013-06-02 23:47:00,63.0,59.7,29.94,North,359,0.0,0.0,89,0.00,,,0.00,Wunderground v.1.15,2013-06-03 03:47:00,
2013-06-02 23:48:00,63.0,59.7,29.94,North,359,0.0,0.0,89,0.00,,,0.00,Wunderground v.1.15,2013-06-03 03:48:00,
2013-06-02 23:49:00,62.9,59.6,29.94,North,359,0.0,0.0,89,0.00,,,0.00,Wunderground v.1.15,2013-06-03 03:49:00,
2013-06-02 23:52:00,62.8,59.5,29.94,North,359,0.0,2.0,89,0.00,,,0.00,Wunderground v.1.15,2013-06-03 03:52:00,
2013-06-02 23:53:00,62.8,59.5,29.94,North,359,0.0,2.0,89,0.00,,,0.00,Wunderground v.1.15,2013-06-03 03:53:00,
2013-06-02 23:54:00,62.8,59.5,29.94,North,359,0.0,2.0,89,0.00,,,0.00,Wunderground v.1.15,2013-06-03 03:54:00,
2013-06-02 23:57:00,62.7,59.4,29.94,North,359,0.0,2.0,89,0.00,,,0.00,Wunderground v.1.15,2013-06-03 03:57:00,
2013-06-02 23:58:00,62.6,59.6,29.94,North,359,0.0,2.0,90,0.00,,,0.00,Wunderground v.1.15,2013-06-03 03:58:00,
2013-06-02 23:59:00,62.6,59.6,29.94,North,359,0.0,2.0,90,0.00,,,0.00,Wunderground v.1.15,2013-06-03 03:59:00,